GFSSW_500_spd_036.txt.gz
Wind_Speed
29 27 26 24 22 24 22 22 18 16 17 19 17 16 19 16 14 14 12 13 16 17 12 20 7 28 35 30 30 31 30 22 21 19 8 20 25 24 26 20 10 14 12 10 9
29 28 26 24 24 22 22 23 19 18 18 17 18 18 18 16 13 11 14 15 16 21 24 18 27 39 32 34 31 29 26 23 24 21 18 13 20 23 18 12 10 12 13 12 12
28 28 26 23 24 22 21 22 19 19 19 16 19 19 17 13 12 13 13 16 19 20 18 32 36 36 28 23 26 28 28 21 17 14 9 15 19 20 10 11 11 10 9 8 8
26 25 25 22 20 15 16 16 17 18 18 17 19 17 14 12 14 14 16 19 24 21 30 40 37 27 21 22 25 11 8 11 12 10 10 19 6 9 8 10 9 11 10 8 5
24 23 20 21 15 15 15 16 13 14 15 13 17 16 14 13 16 19 22 26 31 39 43 40 37 30 20 13 11 19 17 14 15 16 12 11 9 10 12 11 8 6 4 3 3
22 18 16 15 17 16 14 15 12 11 13 16 16 12 16 14 18 25 31 33 36 41 43 41 34 32 25 21 12 24 17 16 16 14 9 8 6 4 7 8 8 7 5 4 5
19 22 23 20 19 17 15 14 13 14 17 16 16 15 15 16 21 25 29 32 34 32 37 39 41 40 35 22 21 16 12 13 12 10 7 6 4 3 3 3 1 4 6 7 8
19 25 17 19 21 18 18 16 14 15 14 17 17 15 16 18 22 21 24 28 20 22 17 29 35 31 20 21 20 18 19 18 13 9 7 6 4 1 5 3 6 8 8 8 10
14 11 10 13 18 17 21 19 17 17 15 17 16 17 17 20 22 14 19 15 18 18 17 16 19 20 16 20 16 16 19 16 13 6 2 3 4 1 4 6 6 8 9 10 13
12 12 11 15 16 23 23 20 20 16 17 19 19 19 19 20 19 21 16 20 22 18 20 22 19 23 22 18 15 13 14 10 8 3 2 8 9 7 5 5 9 11 14 16 19
14 14 13 20 25 24 20 19 17 18 21 21 22 22 25 23 23 25 26 24 24 22 23 26 26 26 24 13 11 6 6 6 2 3 6 13 15 12 8 6 10 15 16 18 20
15 15 18 26 25 22 21 19 21 25 24 22 24 25 24 23 23 24 23 23 21 23 25 23 20 18 19 15 19 11 11 7 1 5 8 13 16 15 14 14 15 17 16 15 20
17 22 21 22 25 23 21 22 25 26 27 25 24 24 24 22 21 19 18 17 19 20 18 19 16 14 13 10 17 15 14 11 11 8 13 16 18 17 19 18 16 14 14 18 21
22 24 22 24 24 23 25 28 28 28 27 26 23 22 23 19 18 17 16 16 16 16 15 14 17 13 10 8 8 7 11 16 15 13 14 18 22 22 23 25 24 16 14 18 22
16 31 27 27 24 28 31 30 29 28 28 26 24 22 21 19 17 18 17 16 14 13 14 12 12 10 9 9 9 9 12 13 15 18 15 21 24 28 28 29 28 20 16 15 24
20 28 28 27 33 33 32 31 30 28 26 25 23 21 19 17 14 14 15 15 14 14 15 14 12 9 8 9 9 10 12 15 17 19 19 22 24 27 28 29 31 24 19 24 29
26 32 30 37 37 34 33 31 29 28 27 24 21 18 16 15 14 14 13 12 10 11 13 13 11 10 10 11 10 8 7 8 8 9 10 13 18 23 25 23 25 26 31 31 33
31 30 40 41 38 36 33 29 29 28 26 23 20 17 14 11 13 13 13 13 14 13 12 13 13 10 8 6 3 3 3 5 6 7 10 15 18 23 28 30 30 28 34 33 41
31 39 45 42 40 38 35 31 28 28 23 20 18 15 11 11 11 11 12 15 14 12 9 10 10 8 6 5 3 1 2 1 2 6 10 14 18 22 25 26 28 27 32 37 41
36 47 46 44 41 39 36 33 26 25 22 18 14 10 10 10 9 10 13 12 12 11 11 11 11 8 7 5 5 1 2 5 8 12 15 20 23 25 26 31 34 37 39 40 38
48 49 47 44 41 39 37 33 25 23 19 14 8 6 4 8 9 9 10 11 13 12 11 12 11 9 7 5 2 2 5 8 13 16 19 22 25 27 28 28 31 33 34 35 32
51 49 46 43 41 38 36 32 25 20 15 10 6 5 1 7 7 9 12 12 12 14 14 12 11 11 7 4 4 5 7 12 15 19 22 26 28 31 33 34 34 34 32 30 33
51 48 45 43 41 37 35 31 24 21 15 9 5 6 5 7 8 11 13 15 17 16 15 14 13 10 8 7 7 9 12 17 20 22 24 28 29 33 35 34 31 28 27 26 26
51 48 46 43 40 37 34 28 24 20 14 10 9 9 8 9 11 13 13 15 16 15 15 15 13 11 11 11 12 14 17 22 24 25 26 28 27 28 26 24 22 20 21 23 27
50 46 43 41 39 37 33 28 22 20 15 13 12 11 11 13 13 13 13 13 13 15 16 15 13 13 13 13 13 16 18 22 25 27 29 29 32 30 27 24 25 27 27 29 32
49 46 43 42 40 37 33 27 23 19 16 14 13 13 13 14 12 14 13 13 13 15 16 17 18 17 16 16 17 20 21 24 27 28 30 34 36 36 37 34 33 31 31 33 35
49 45 43 42 39 35 30 27 24 21 18 15 13 13 13 14 16 17 19 16 16 17 18 18 18 18 18 20 22 22 24 26 29 31 32 35 36 38 37 36 34 35 36 36 38

GFSSW_500_spd_039.txt.gz
Wind_Speed
32 33 31 27 26 26 24 23 23 21 17 15 16 17 16 13 13 13 14 16 16 13 13 14 20 21 17 20 23 25 26 27 24 21 24 13 1 8 16 18 20 21 21 17 8
30 33 27 26 27 24 25 22 22 23 19 17 18 17 14 14 13 12 13 14 14 15 16 17 24 29 30 27 29 29 26 22 19 20 12 8 6 13 15 16 14 14 13 9 8
30 29 26 28 24 24 25 22 23 23 21 19 18 15 14 14 11 14 14 15 14 18 19 18 27 34 35 31 34 34 28 23 15 9 15 1 13 19 16 13 6 10 11 9 7
29 29 26 26 25 22 21 20 19 18 19 20 19 16 15 12 16 15 15 15 16 18 26 26 35 34 38 33 20 12 16 13 12 7 5 6 10 8 5 5 5 9 10 10 6
30 26 24 23 19 19 19 16 17 16 17 17 18 14 15 17 18 18 20 20 23 26 31 38 38 28 19 22 19 15 10 10 4 5 6 7 8 5 6 7 9 10 9 8 6
25 23 23 18 16 19 19 15 13 12 13 15 14 18 16 17 18 20 22 24 33 33 36 31 29 21 19 17 10 6 12 10 9 11 11 9 7 8 11 12 10 8 9 7 5
23 22 20 21 22 19 18 14 14 14 11 14 17 19 17 17 20 23 27 30 35 41 36 36 27 19 14 12 10 6 11 8 10 10 9 10 10 13 12 13 11 10 8 7 6
20 19 21 29 28 23 17 11 16 17 14 14 16 14 13 17 19 24 27 32 39 44 35 30 28 18 13 9 8 11 15 13 12 11 11 8 9 8 6 7 7 8 10 8 7
19 16 20 17 17 20 18 17 18 17 16 16 14 11 15 16 20 25 26 33 42 42 34 34 30 24 14 13 15 18 18 14 12 10 10 9 6 5 6 6 6 8 8 9 8
19 15 17 13 10 16 18 21 19 18 15 14 13 14 19 22 22 27 24 25 37 36 35 31 27 23 21 22 21 22 19 16 14 10 10 9 5 4 7 9 9 10 10 10 13
18 18 17 16 14 18 20 22 21 15 13 12 15 17 18 24 23 25 23 26 25 25 23 26 27 29 27 20 18 20 22 13 11 3 4 5 5 6 6 8 10 10 11 14 18
17 19 17 15 20 21 24 21 16 16 18 19 19 18 21 19 22 22 23 24 25 21 26 29 29 27 23 19 19 16 21 11 6 0 5 9 12 11 10 11 12 13 14 16 18
17 18 15 13 22 23 19 17 17 18 20 19 19 20 20 21 25 25 26 26 26 27 27 25 26 25 19 15 19 14 11 7 5 8 10 12 14 15 16 16 15 14 14 15 21
18 17 17 18 19 18 16 16 20 22 22 21 23 23 23 24 23 23 23 24 23 19 18 19 17 16 16 13 13 10 10 11 11 12 18 19 22 20 20 21 21 21 18 20 23
18 23 21 16 18 17 18 23 25 26 26 26 24 24 25 23 22 22 20 19 17 16 15 14 14 14 16 16 13 11 11 11 12 14 17 22 25 24 24 24 24 23 24 25 26
20 28 23 24 21 20 26 27 27 26 25 26 25 23 22 21 19 19 19 18 17 15 14 17 17 15 15 13 10 10 11 13 16 18 21 24 27 29 25 23 21 21 24 25 27
22 19 25 23 25 29 30 29 28 28 27 25 24 23 21 19 18 17 15 15 14 15 16 19 17 17 16 13 10 11 13 13 14 12 15 16 18 20 21 22 25 27 27 29 29
24 19 27 27 32 34 32 31 29 28 27 25 23 21 17 15 14 14 15 15 14 14 17 20 17 14 12 10 8 8 7 8 9 9 10 10 15 17 19 22 24 26 28 30 26
27 30 33 33 38 35 34 31 30 29 27 23 21 18 16 15 14 14 14 15 17 17 17 16 14 12 10 9 8 7 7 4 3 6 8 10 14 16 20 24 26 27 29 32 33
35 30 36 42 40 38 36 32 29 27 25 23 18 16 14 13 13 14 17 17 17 16 15 14 13 13 12 11 10 9 6 3 3 5 8 12 15 18 20 22 20 21 23 27 28
38 35 44 45 42 40 37 33 30 28 24 22 19 14 11 14 15 17 17 15 16 16 16 16 16 15 14 13 11 8 6 3 4 9 14 17 20 20 24 26 27 27 29 28 27
39 41 50 48 44 41 37 33 29 28 24 20 15 11 9 11 11 15 16 17 18 19 19 20 18 17 15 11 10 8 7 8 10 13 16 18 20 21 24 25 28 28 31 32 34
43 47 52 49 45 42 38 34 27 26 22 17 12 8 7 11 12 14 14 16 18 20 21 20 18 18 15 12 11 11 12 13 15 18 19 21 23 24 27 28 32 32 33 34 36
47 54 54 49 45 41 38 36 30 24 20 16 10 8 7 10 14 14 15 17 18 18 18 18 18 17 17 14 15 16 17 17 18 20 21 23 25 28 29 30 32 33 34 35 37
53 56 52 47 44 41 39 35 30 26 21 16 12 9 8 11 13 13 13 16 17 18 18 18 19 19 17 16 17 18 19 19 21 24 26 25 27 30 31 33 35 36 36 36 35
55 55 51 46 43 40 39 35 29 25 21 18 14 9 8 12 14 15 15 16 16 18 19 20 21 22 21 19 19 20 21 22 24 27 29 29 30 31 35 38 39 39 39 39 38
57 53 50 46 44 43 38 31 29 27 22 18 15 12 11 14 17 17 18 19 18 18 19 22 23 24 22 23 24 21 23 26 27 28 31 31 31 35 37 39 40 41 41 40 41

GFSSW_500_spd_042.txt.gz
Wind_Speed
40 39 36 31 31 24 23 26 25 23 21 20 19 18 14 13 12 11 13 13 14 14 18 21 17 16 17 20 13 16 19 20 23 21 36 34 33 19 5 5 10 10 15 15 14
38 40 35 29 28 23 25 25 24 22 20 22 20 18 15 11 12 14 13 13 12 11 14 17 16 19 20 22 21 24 20 22 26 28 19 27 18 9 12 8 9 9 5 4 3
37 40 29 28 27 25 25 25 23 21 22 23 21 18 14 13 15 15 13 13 13 11 15 16 15 23 23 21 22 18 19 16 17 20 6 4 3 15 11 4 1 3 6 6 4
36 37 29 27 25 24 25 23 19 20 21 23 20 18 13 15 17 13 14 14 13 15 20 15 16 23 24 26 26 22 21 12 15 4 9 11 13 10 7 6 1 4 7 7 5
38 32 28 23 23 22 19 19 19 17 19 17 18 18 15 18 15 15 14 13 13 25 26 22 23 27 28 25 23 28 4 8 2 5 8 12 11 5 0 4 6 7 8 6 5
38 32 25 22 22 19 17 18 18 19 15 12 13 16 17 20 16 15 14 12 14 26 26 26 31 27 26 26 19 9 7 5 4 4 5 3 0 2 5 7 6 7 7 8 7
37 28 22 20 21 19 20 17 16 16 11 11 15 16 20 16 15 14 13 15 20 28 33 31 31 25 21 18 8 4 10 5 4 5 5 6 9 10 11 11 9 9 11 10 7
34 23 20 20 22 26 26 20 17 16 13 13 13 16 12 14 15 15 17 23 32 32 30 24 24 16 12 8 2 3 9 6 7 8 11 11 12 11 11 14 14 11 11 9 8
31 22 20 20 25 21 16 19 16 15 15 16 12 9 11 14 15 16 21 27 36 33 26 26 16 12 11 6 5 9 12 7 10 13 12 12 13 14 16 11 5 8 11 10 12
26 20 19 19 21 16 14 18 17 17 18 16 11 12 15 15 18 23 24 29 36 31 24 19 23 15 10 10 8 17 14 14 13 12 12 12 13 10 7 8 8 12 13 12 12
22 19 19 21 18 14 15 20 21 18 15 12 11 13 16 17 20 26 31 34 35 31 24 17 18 19 12 11 14 18 15 14 15 14 12 12 9 5 6 7 10 12 13 14 14
21 17 20 21 18 17 18 19 19 16 14 14 16 16 17 15 19 26 31 33 33 31 27 20 18 17 19 18 18 20 19 16 12 12 8 8 7 4 4 5 7 11 13 15 17
22 17 20 20 20 19 19 18 17 15 15 15 16 17 17 18 18 22 28 27 29 26 30 28 27 28 27 24 23 22 25 22 12 9 7 7 8 9 9 10 13 15 16 18 21
21 18 19 19 18 16 16 16 15 14 16 19 19 19 20 20 22 22 26 25 28 27 25 24 27 29 25 17 12 18 20 17 10 10 11 12 14 12 14 16 18 20 22 22 24
22 19 18 16 12 14 15 15 15 18 19 20 21 21 21 21 23 24 26 26 25 19 19 19 20 21 21 17 12 13 9 9 10 12 14 16 18 16 19 21 23 25 25 25 25
24 20 18 18 15 15 14 18 23 22 21 22 23 23 23 22 23 23 23 21 19 20 18 18 17 17 15 15 13 12 13 13 13 14 16 18 20 18 18 17 17 20 23 25 29
27 22 23 24 18 18 19 26 26 25 23 23 22 22 22 23 23 22 20 18 18 17 16 15 16 16 15 15 15 15 14 14 15 14 13 13 13 10 11 14 17 20 23 25 27
28 24 29 26 21 21 29 29 27 24 25 25 23 22 22 21 19 17 16 15 15 16 16 18 18 16 16 16 15 15 14 12 10 9 7 7 8 7 5 7 10 13 15 18 20
31 29 31 29 24 29 33 30 28 25 25 24 23 20 18 18 15 14 14 15 16 16 18 18 16 16 16 14 14 12 11 8 5 4 5 4 6 8 10 13 15 17 18 18 21
36 32 31 30 33 36 35 31 28 26 26 24 20 19 16 14 13 13 14 15 15 16 16 15 17 17 16 15 13 12 10 8 6 5 5 7 10 13 14 17 18 21 23 23 26
42 36 37 38 37 40 36 31 28 27 27 24 20 18 15 13 13 14 15 16 16 16 15 16 15 17 17 15 13 12 10 9 9 8 10 10 11 14 17 19 21 24 27 29 30
45 38 42 41 44 42 38 33 30 28 27 22 19 16 14 14 16 17 17 17 16 17 17 18 17 18 18 17 16 14 12 12 12 13 15 16 16 19 21 22 25 28 31 33 34
44 43 43 44 48 43 38 35 31 29 26 22 19 15 12 12 12 15 17 17 18 19 20 20 20 20 19 18 16 15 14 14 15 17 18 18 21 22 23 24 26 29 32 34 37
46 45 44 49 48 44 39 35 30 27 24 20 16 12 9 9 13 14 15 17 17 18 22 22 21 20 20 20 19 18 17 17 19 20 20 22 24 26 25 26 29 31 35 37 38
51 46 44 52 49 45 41 36 31 27 24 21 16 13 10 8 13 14 13 14 16 15 17 20 20 21 23 23 22 21 20 20 21 23 24 24 27 30 29 31 32 34 37 38 40
50 46 48 51 49 46 42 36 33 27 22 19 17 12 10 9 14 15 15 15 16 17 19 20 21 23 25 25 25 24 22 22 25 26 28 30 29 31 33 34 35 37 40 43 45
48 46 50 53 50 46 40 35 32 28 25 22 18 14 12 13 14 15 15 16 17 17 19 20 21 24 27 27 29 26 22 27 28 29 32 33 35 36 36 37 38 40 44 46 46

GFSSW_500_spd_045.txt.gz
Wind_Speed
42 41 42 40 41 35 27 23 22 23 22 20 19 19 19 17 13 13 15 11 13 15 26 31 27 18 13 18 19 17 21 25 25 24 22 30 27 31 25 10 5 4 3 4 5
43 41 39 42 41 36 26 21 24 22 21 20 18 20 18 17 16 14 10 10 10 12 14 20 23 17 17 16 17 16 12 26 23 26 21 29 30 30 13 15 4 6 4 3 3
42 40 40 42 40 36 24 20 24 23 21 19 19 21 20 19 15 11 10 9 12 12 13 16 16 18 21 18 16 16 16 15 16 19 19 13 13 7 12 11 10 7 7 5 5
42 39 40 40 40 31 20 21 20 17 16 16 19 22 19 18 14 13 9 10 12 11 13 16 14 14 20 19 16 20 20 19 20 11 12 15 16 17 13 13 10 5 5 6 5
41 39 37 39 37 26 19 19 16 17 17 17 19 15 17 15 14 11 9 11 9 11 16 15 12 22 22 19 18 17 17 9 14 24 16 14 15 14 11 8 7 4 5 5 4
42 37 35 37 34 22 19 19 17 17 15 19 15 17 17 13 13 11 11 11 7 21 20 23 24 23 27 18 18 18 18 11 17 13 10 10 11 10 8 5 3 4 6 7 6
41 35 34 34 31 21 19 21 20 17 16 11 8 10 14 13 15 14 11 8 17 26 27 25 23 23 18 19 13 12 9 6 9 9 3 3 7 9 5 3 4 6 6 5 5
38 34 32 33 28 21 22 24 21 17 15 11 13 15 15 13 13 14 11 11 22 28 25 22 17 13 15 13 8 3 7 8 8 10 7 8 9 9 8 8 7 8 8 8 8
35 32 30 31 24 20 22 23 13 14 13 12 15 10 11 12 15 13 11 16 25 28 25 23 23 16 14 7 4 5 6 7 7 7 7 7 8 9 9 8 7 8 10 11 12
32 31 28 29 21 18 19 16 12 12 12 13 15 10 12 13 15 14 14 23 28 27 23 17 14 11 10 5 3 8 10 11 13 13 12 11 11 9 10 12 10 11 11 10 13
29 27 28 25 18 16 19 15 13 14 16 17 11 10 12 12 12 16 19 24 29 25 25 22 21 14 7 8 10 11 14 12 13 12 9 8 8 9 7 8 10 10 8 10 11
29 27 27 23 16 16 18 15 16 17 17 15 14 14 14 15 15 18 23 22 28 21 21 18 17 13 14 9 12 18 14 10 9 7 9 11 10 9 7 7 7 7 9 12 14
27 27 25 21 15 17 18 15 17 17 17 14 15 15 18 17 16 20 25 26 28 25 19 17 13 12 11 14 13 17 19 15 13 11 11 10 9 7 6 6 7 9 12 15 18
27 26 23 17 15 18 18 15 17 17 16 14 15 18 17 16 16 21 24 27 27 29 26 23 21 17 18 17 19 17 16 19 19 13 12 10 8 5 6 8 11 13 16 19 21
29 26 21 15 13 16 10 15 14 15 15 18 20 18 20 19 18 19 23 27 29 25 24 23 26 23 22 21 18 12 15 15 16 19 13 9 10 7 10 11 12 12 14 16 19
33 27 20 15 12 14 13 14 15 18 18 18 20 21 21 21 19 20 21 22 25 24 22 21 18 18 21 21 16 15 13 14 14 14 13 11 11 5 6 8 9 11 14 17 19
37 29 24 19 16 18 17 17 19 19 19 19 20 22 22 21 21 21 21 21 20 20 20 19 17 18 19 18 16 16 14 15 15 14 13 8 6 5 6 7 8 10 12 14 15
38 34 28 24 23 23 21 19 19 22 22 23 22 22 21 22 21 19 19 18 18 17 16 16 18 17 17 15 15 15 15 16 14 10 6 4 1 1 1 4 5 7 9 11 14
38 37 32 27 28 26 24 20 25 27 26 24 22 21 19 19 18 18 17 17 17 17 18 19 19 18 17 16 16 16 16 13 9 7 4 3 2 3 5 5 8 9 11 14 17
38 38 34 30 32 29 26 27 31 28 26 24 21 19 17 17 17 16 17 17 17 18 17 16 17 18 18 17 18 16 13 12 10 7 5 5 6 7 7 9 10 11 14 17 19
42 42 38 37 35 30 30 34 33 29 26 24 22 19 18 16 16 15 14 14 15 17 17 16 18 18 19 18 16 15 12 12 11 9 8 8 8 10 13 15 15 16 17 19 22
47 47 41 39 39 34 37 38 34 29 27 25 24 21 18 15 13 13 14 15 17 18 17 17 17 15 16 18 17 16 15 14 14 13 14 13 12 14 17 19 19 20 21 24 27
48 49 45 39 40 38 42 39 34 30 28 26 22 17 14 13 14 17 18 19 18 17 16 17 16 16 16 17 17 17 16 17 17 17 16 18 19 19 21 23 25 26 27 30 32
48 52 48 40 43 42 44 40 34 30 27 25 21 17 13 11 13 14 15 16 16 16 17 19 18 17 18 20 21 20 21 21 20 20 21 19 23 25 26 27 30 31 33 34 36
49 53 47 42 47 47 47 41 35 31 28 24 20 17 11 8 11 12 14 15 16 16 17 19 20 20 21 22 24 23 23 22 22 23 25 24 25 29 31 32 34 36 37 39 40
49 50 46 42 46 49 48 43 35 30 28 25 22 17 9 7 9 13 14 13 12 14 14 14 17 20 22 24 26 27 27 25 25 27 29 31 27 34 34 36 38 40 41 42 44
46 49 47 44 48 52 48 41 35 31 29 26 22 15 10 8 10 12 14 13 12 12 13 15 17 21 23 25 29 30 25 29 30 31 33 33 34 37 37 39 41 42 43 44 45

GFSSW_500_spd_048.txt.gz
Wind_Speed
38 35 37 37 39 40 40 41 35 23 21 21 19 17 16 17 17 18 15 12 14 16 21 29 30 25 21 13 15 18 17 16 22 18 25 27 33 28 22 20 15 17 6 4 2
38 33 35 37 38 36 38 39 31 22 21 21 19 18 17 17 18 16 14 12 7 7 12 22 31 27 21 14 17 18 15 16 21 19 19 30 28 26 25 20 10 9 10 8 5
38 36 36 35 37 36 37 37 27 22 18 17 14 16 18 19 20 15 13 8 7 9 11 12 22 29 22 18 18 17 15 16 13 21 23 31 23 19 24 28 13 12 13 12 8
37 35 37 35 36 35 37 32 24 20 18 18 14 16 19 20 17 13 11 7 9 10 9 12 17 20 22 22 19 13 16 11 10 16 23 17 14 21 18 17 14 9 8 10 8
37 36 36 35 34 34 35 28 23 19 18 18 15 19 17 12 13 11 9 9 8 8 7 14 16 16 17 22 16 15 13 16 12 19 21 17 19 22 19 15 11 9 7 8 7
36 36 36 33 32 33 33 25 23 20 19 15 18 16 13 13 13 11 11 12 7 10 16 17 18 19 20 16 16 14 6 12 18 23 20 16 13 15 13 11 7 5 6 7 7
35 34 34 33 29 33 30 24 23 23 23 15 15 9 9 11 9 13 14 9 15 24 22 19 21 18 22 22 15 14 16 18 14 15 16 13 11 10 10 7 4 2 3 3 4
32 31 31 31 27 31 27 23 24 24 15 13 11 11 11 12 12 14 11 8 27 27 24 24 21 19 15 11 8 6 15 7 11 12 12 12 10 10 8 6 4 2 2 4 7
29 27 28 28 28 29 23 22 22 18 10 12 12 12 8 8 8 12 10 11 24 27 22 19 10 9 12 14 4 9 8 8 8 8 9 10 12 8 4 5 5 6 7 9 11
26 25 25 26 27 26 20 19 19 13 10 12 14 10 8 12 14 12 10 15 20 23 16 14 15 11 13 8 3 6 9 9 8 10 10 9 9 8 6 7 9 6 8 10 12
24 23 24 26 26 23 18 18 17 13 14 14 12 11 8 13 11 13 14 19 20 17 18 10 8 13 11 9 9 12 10 8 9 11 11 11 9 9 7 8 10 8 7 9 11
27 23 25 28 25 19 17 17 16 14 15 15 13 12 11 12 11 16 18 23 23 22 16 19 17 11 9 11 12 13 10 13 9 4 6 8 8 6 5 6 8 10 11 10 11
30 25 25 28 24 17 15 18 17 15 14 16 15 14 14 15 15 20 21 22 25 25 24 14 17 16 9 4 10 17 14 10 6 5 8 8 10 10 9 10 12 11 12 13 14
30 26 27 29 20 16 16 17 17 16 15 17 15 16 15 15 18 20 24 23 24 22 19 18 13 10 7 9 10 9 10 11 11 9 8 8 8 13 13 13 13 14 15 16 17
29 28 32 28 19 18 16 14 14 15 16 19 19 17 16 17 17 20 24 23 21 25 18 17 16 15 13 14 12 11 9 12 12 14 18 15 13 18 14 15 15 16 15 16 17
31 33 36 27 22 22 17 13 15 16 17 15 17 17 17 19 19 21 23 23 24 25 25 22 20 19 19 17 16 15 13 12 14 13 16 16 13 12 12 13 11 12 13 14 13
35 39 38 29 25 23 19 16 18 15 14 16 15 17 20 19 19 20 22 23 24 24 24 20 20 16 14 15 16 17 16 14 13 15 14 13 13 11 10 10 9 7 5 4 5
40 40 39 31 28 26 22 22 19 13 17 16 18 21 21 21 20 18 19 20 18 19 17 16 18 17 15 17 18 19 16 16 16 15 15 11 8 8 7 4 5 4 4 5 7
43 43 40 35 32 30 27 26 18 17 17 19 22 23 23 22 20 19 18 17 16 15 18 18 19 19 19 20 20 17 17 16 16 14 12 9 9 7 6 7 7 8 9 10 12
46 46 39 36 35 34 32 25 21 21 21 22 23 23 22 20 18 17 16 16 17 18 19 19 21 21 21 21 21 19 17 16 14 13 12 11 9 10 9 9 11 13 13 14 16
51 52 45 41 40 39 33 25 25 27 26 27 25 22 19 18 16 16 16 16 17 18 20 20 20 20 21 21 21 19 17 15 14 14 13 12 11 13 14 14 14 16 17 19 21
57 55 49 47 45 40 35 29 31 33 32 30 26 24 20 18 17 17 15 17 18 20 21 20 21 20 20 20 22 20 17 16 17 16 16 16 15 17 16 18 19 20 22 24 28
62 57 53 51 46 42 36 35 36 36 34 31 27 24 21 19 17 16 16 18 19 19 20 20 21 19 19 17 17 17 17 18 19 19 18 20 21 22 22 22 23 25 28 30 32
59 56 55 51 49 41 39 39 40 38 35 32 28 24 20 18 16 16 17 19 20 19 19 20 20 19 17 17 17 18 20 22 23 22 21 20 25 25 27 27 27 30 32 34 37
61 62 56 53 51 46 42 44 42 39 35 32 29 24 19 15 13 13 14 14 14 15 17 19 19 19 19 19 19 20 22 24 25 25 26 24 26 28 34 33 32 35 38 39 42
61 61 56 51 47 45 45 48 43 40 34 31 27 23 19 13 10 10 11 13 14 14 17 18 17 21 21 20 21 23 25 26 27 27 28 31 29 33 37 38 38 40 42 44 45
54 55 57 50 47 47 47 49 45 41 36 32 28 25 20 14 9 8 10 13 14 14 15 15 14 16 16 19 23 24 21 28 31 31 33 36 36 38 40 41 42 43 45 46 47

GFSSW_500_spd_051.txt.gz
Wind_Speed
30 30 30 27 32 35 39 37 35 37 33 25 24 24 20 19 17 17 17 15 16 13 16 21 26 24 23 17 11 16 13 10 19 27 25 28 32 30 19 27 30 23 22 18 19
29 30 31 27 31 35 38 37 35 35 28 22 22 21 17 18 17 17 17 15 14 7 7 14 22 27 21 16 13 13 12 19 21 29 30 15 29 28 32 31 26 16 8 11 9
30 30 31 28 29 33 35 36 34 33 26 21 22 21 16 16 19 19 16 13 8 6 7 10 15 27 23 20 15 14 15 25 24 24 19 27 28 29 27 25 27 14 11 13 13
30 31 32 30 28 31 33 34 35 30 25 23 21 21 19 19 23 16 13 10 8 10 11 13 13 15 26 22 16 18 21 21 22 20 7 22 19 27 22 10 15 13 11 12 12
33 34 32 32 26 28 32 33 33 29 23 22 21 19 20 20 18 11 10 10 12 11 12 12 14 17 18 15 22 29 16 18 18 19 21 18 7 14 7 19 14 11 7 8 11
34 34 32 31 25 27 29 31 32 28 25 22 22 19 18 16 13 11 11 13 12 9 11 10 12 15 17 18 15 13 21 13 14 16 21 8 20 21 15 15 12 8 5 6 7
33 33 32 28 25 25 27 30 31 26 26 24 20 19 13 11 10 10 14 12 7 8 10 11 13 16 17 19 21 23 18 19 22 22 13 19 9 14 9 10 10 7 6 6 5
34 32 33 25 25 25 26 29 29 25 24 22 14 15 10 11 9 10 12 6 13 18 18 17 19 20 19 21 22 27 20 14 14 15 14 14 5 8 7 6 3 4 4 4 4
34 33 30 23 25 25 25 28 26 24 22 15 13 11 10 12 6 7 7 8 21 23 21 20 20 20 19 12 7 11 7 7 10 12 13 9 12 9 7 4 4 3 4 4 6
35 32 28 22 22 24 25 27 25 21 19 14 14 12 10 11 7 4 7 10 20 26 28 19 14 1 16 16 5 4 6 8 5 7 14 14 15 10 8 7 5 4 5 6 8
34 31 27 23 21 24 25 26 23 21 18 16 14 13 9 9 9 7 10 10 13 22 20 18 16 8 12 10 3 4 11 9 8 8 10 9 10 8 4 6 9 9 7 9 9
34 31 29 23 24 25 26 25 21 22 20 14 15 14 10 9 11 9 14 16 14 16 14 2 2 10 10 13 7 8 10 12 8 3 7 11 10 9 6 6 8 10 11 11 12
35 33 32 26 26 27 26 23 22 22 20 13 15 15 12 11 12 13 19 23 16 11 10 14 18 12 11 6 8 10 11 8 5 4 7 9 11 8 8 8 9 12 14 14 13
39 36 35 29 28 29 25 24 22 23 20 14 14 15 13 12 14 17 24 25 26 25 20 21 20 17 3 5 9 13 7 7 9 6 5 4 9 18 9 13 15 15 16 19 19
41 39 36 30 31 29 23 24 22 22 18 16 16 18 13 14 16 15 23 27 23 21 27 12 10 7 5 9 4 8 4 4 6 9 14 6 10 19 12 21 21 21 23 23 23
43 39 36 31 34 30 26 25 22 21 17 10 13 15 14 17 17 18 22 25 28 22 19 12 12 14 15 12 12 9 8 8 10 9 12 11 12 13 19 21 23 24 24 22 19
43 40 38 35 33 30 28 27 25 22 17 12 13 13 11 14 16 17 20 22 24 22 20 18 15 17 17 12 12 12 10 8 8 11 11 17 17 13 30 20 19 16 15 12 11
44 42 41 37 36 35 31 29 28 20 13 13 14 13 12 14 17 18 21 22 25 20 16 12 14 16 14 12 10 12 12 12 12 10 9 20 14 18 16 14 10 9 9 9 9
46 45 42 39 39 38 36 36 22 20 19 16 16 16 14 16 18 18 18 20 19 19 18 12 17 17 12 14 14 16 17 18 18 17 18 16 14 14 12 11 11 11 12 13 14
46 45 47 43 44 43 39 34 24 25 21 21 18 16 16 18 19 20 19 20 20 17 19 18 17 19 16 18 19 20 20 17 19 19 16 7 13 16 14 15 14 15 16 17 19
48 47 50 47 49 45 38 31 27 25 23 24 20 18 17 21 20 19 17 17 16 15 16 18 18 19 19 19 18 22 22 20 20 19 17 16 10 19 17 17 17 19 19 20 22
52 52 51 50 49 41 39 33 29 29 26 27 22 22 20 22 20 18 17 16 17 17 17 20 21 23 18 24 22 24 22 22 22 20 20 19 21 18 18 20 21 24 24 27 28
59 57 54 54 50 43 39 37 35 33 30 30 27 26 25 23 22 19 20 17 17 18 21 19 22 23 25 22 21 22 23 22 23 23 21 23 18 25 25 27 27 28 28 30 32
65 62 63 55 50 47 43 42 37 34 36 35 32 30 28 25 21 20 19 17 18 19 21 23 24 24 24 16 19 18 21 22 24 24 20 22 22 27 29 31 32 31 33 35 37
67 64 60 52 49 51 48 43 39 37 40 39 36 31 27 24 21 19 18 19 21 22 24 25 24 24 23 23 21 21 20 22 23 21 27 19 25 26 37 36 36 35 38 39 41
65 61 60 56 54 53 50 47 43 41 43 40 37 30 28 23 20 19 19 19 18 18 18 19 21 21 22 23 24 24 22 22 22 23 26 25 31 31 38 40 42 42 43 45 46
69 69 65 64 56 57 48 46 45 43 45 42 36 32 30 27 21 18 17 15 15 16 17 18 20 20 21 22 26 24 19 20 24 25 29 33 32 40 40 42 43 45 46 47 48

GFSSW_500_spd_057.txt.gz
Wind_Speed
32 31 28 27 27 27 27 28 29 26 26 31 32 35 36 39 37 28 23 16 14 16 17 13 10 14 16 13 14 16 15 11 12 16 19 29 23 26 24 28 33 38 29 30 30
34 32 31 29 28 28 28 29 30 26 26 31 32 36 36 39 39 29 23 21 18 14 15 11 9 17 20 13 14 9 13 19 25 22 23 27 27 29 32 39 33 30 16 17 22
35 34 32 30 28 28 28 29 29 26 27 31 34 37 37 40 37 27 27 25 19 14 11 8 4 11 22 17 12 10 15 15 21 21 20 25 23 20 27 35 24 22 21 15 16
35 33 33 31 28 28 29 28 28 25 26 31 33 36 36 39 38 28 25 19 14 10 7 5 4 4 16 16 12 9 16 16 20 26 19 17 22 16 16 30 20 14 5 13 9
36 34 32 30 27 28 27 26 27 26 26 30 33 36 36 36 34 24 21 16 10 7 8 7 8 6 12 21 18 15 18 22 24 28 19 16 13 19 21 25 12 14 5 8 11
38 35 32 30 28 27 26 25 26 25 25 30 33 37 33 33 26 17 16 12 9 8 8 8 10 13 15 24 19 12 20 25 16 26 24 10 12 7 6 2 13 11 12 11 10
38 36 34 30 28 27 26 25 26 26 24 29 33 36 33 28 22 16 12 12 7 7 9 9 11 18 20 24 22 26 23 20 21 16 5 13 6 7 1 8 7 8 8 7 9
39 36 34 31 29 27 26 25 26 25 24 28 32 34 32 25 16 14 12 10 8 10 7 10 10 14 14 20 21 18 18 15 16 8 5 9 4 8 8 5 5 4 9 5 3
39 37 35 32 29 29 28 27 25 24 24 28 30 31 27 22 14 10 9 7 8 9 8 4 5 12 15 19 16 10 9 7 8 7 6 6 3 10 11 7 6 6 2 8 6
40 39 36 33 32 30 29 27 24 22 26 28 27 28 26 18 11 8 8 7 5 4 9 8 8 8 12 15 12 16 21 13 9 2 3 9 5 6 2 3 8 9 7 6 7
41 40 38 36 35 32 30 27 24 22 26 27 28 28 25 14 8 7 6 7 4 6 11 14 14 10 9 15 12 9 5 5 9 7 9 2 6 5 6 3 6 8 10 7 6
42 41 39 38 38 34 31 28 24 22 24 28 27 26 23 11 8 5 5 3 3 8 8 10 11 12 5 13 11 5 6 8 2 4 3 6 3 4 8 3 4 4 5 2 5
45 42 40 39 38 35 30 29 25 23 22 27 25 23 21 9 10 6 5 4 8 8 11 6 4 9 16 14 3 4 11 13 12 12 7 8 12 17 9 13 5 2 5 1 5
46 44 42 40 39 34 32 27 27 24 24 24 22 19 17 9 8 9 6 3 8 6 4 2 2 16 25 9 0 4 14 22 21 12 10 17 20 17 7 10 10 9 8 7 9
49 43 42 42 37 34 30 31 29 25 25 23 19 16 14 8 9 10 8 5 7 6 8 5 7 19 19 15 9 2 7 20 16 7 10 10 18 17 14 14 12 12 15 15 12
51 47 44 41 38 36 34 35 30 27 23 23 18 17 10 11 10 14 8 8 10 15 11 8 7 12 10 4 1 3 2 14 15 14 15 7 20 9 14 15 16 7 13 16 15
54 52 49 45 42 38 38 37 33 29 23 23 21 16 10 13 14 17 7 11 13 16 19 14 14 13 2 5 6 7 14 18 18 17 11 13 17 9 16 13 11 9 13 14 15
57 54 51 49 48 40 40 39 38 27 26 26 26 17 12 14 16 14 12 10 12 13 18 13 12 11 6 5 12 12 22 23 19 10 17 13 11 15 14 13 11 11 11 9 10
59 55 50 47 51 46 45 43 36 29 29 28 27 20 13 15 17 10 12 12 14 14 16 19 17 16 20 16 15 18 20 17 12 13 9 12 14 16 13 14 15 13 11 12 14
62 58 50 45 50 51 49 42 36 31 32 30 28 19 16 15 18 15 14 11 12 11 16 20 19 22 14 12 14 10 11 3 13 14 13 11 14 18 10 16 14 12 15 16 17
63 59 51 53 50 54 50 45 34 32 34 34 29 22 17 18 18 19 14 13 13 16 20 24 21 19 27 19 16 11 14 18 18 18 16 11 18 15 13 11 16 19 19 19 20
64 63 54 58 58 55 50 42 38 34 37 36 33 23 22 20 17 17 17 15 20 25 23 26 18 19 11 14 8 12 16 18 18 16 21 21 15 21 23 20 23 26 24 23 25
62 63 58 58 59 55 51 44 41 39 39 39 33 24 24 23 26 27 16 22 22 29 22 19 21 17 15 12 18 17 18 18 21 23 21 24 19 17 23 28 30 31 33 30 29
65 65 61 59 53 50 52 48 44 41 40 39 34 28 26 26 29 24 22 25 24 24 22 21 22 19 18 19 21 22 20 19 22 27 26 24 21 17 21 27 31 34 34 32 30
70 65 61 62 60 56 55 52 46 44 41 40 40 29 30 29 32 31 25 29 24 21 23 25 24 23 21 22 24 28 25 22 23 20 22 16 20 16 23 29 32 37 35 31 34
70 62 60 55 59 55 54 49 50 44 43 42 38 28 30 31 32 31 36 30 22 21 24 24 23 24 26 26 28 28 27 21 27 25 22 20 19 19 26 31 35 40 40 41 43
64 60 57 55 56 56 51 52 46 44 44 41 38 31 31 32 33 35 35 27 23 25 24 24 25 26 26 25 27 28 19 25 25 24 24 25 26 26 30 32 34 34 37 41 44

GFSSW_500_spd_060.txt.gz
Wind_Speed
33 32 31 30 29 30 27 26 25 26 29 29 29 29 33 36 41 43 37 27 23 20 21 19 14 13 17 14 16 10 9 15 27 27 22 22 18 19 19 23 24 21 18 25 28
36 35 34 33 30 31 29 27 27 26 28 28 29 30 33 37 41 44 35 28 26 21 19 15 13 11 18 16 12 9 12 22 25 30 25 15 16 18 17 25 27 26 23 27 35
39 38 35 33 33 31 30 28 27 26 27 28 28 30 35 38 41 42 32 27 22 19 14 10 5 5 17 13 10 9 19 26 28 26 28 21 17 21 24 23 21 21 25 23 17
41 39 36 35 34 32 30 28 26 25 27 27 27 30 36 39 41 36 28 25 21 15 11 7 1 0 17 19 17 18 22 29 28 27 20 10 16 21 25 22 22 25 20 18 18
42 39 37 36 34 32 29 27 25 24 25 27 27 30 35 39 39 30 23 25 18 12 10 5 5 6 15 27 23 23 22 21 22 17 17 20 21 20 18 26 26 22 20 20 13
42 39 38 37 35 32 29 28 24 24 24 26 27 31 35 38 35 26 23 20 16 8 7 6 10 10 14 28 26 23 20 18 17 15 13 21 20 13 14 10 13 15 18 12 16
43 41 40 38 36 34 30 28 25 23 24 24 26 31 33 36 31 21 21 17 12 5 4 7 5 11 17 25 29 24 23 20 17 15 16 9 3 2 4 2 4 18 16 8 9
46 42 41 39 37 34 31 28 25 23 23 24 25 30 31 33 28 15 14 10 8 8 8 4 5 8 15 13 26 24 16 19 17 17 8 8 1 3 1 4 8 11 12 13 13
47 44 40 40 37 35 32 29 25 23 23 23 25 28 30 30 26 13 14 12 8 8 5 4 2 7 11 14 18 20 21 17 14 2 9 10 6 5 5 6 6 10 10 12 12
46 43 41 38 37 36 33 30 26 23 23 23 25 26 27 29 23 12 11 9 8 2 4 2 1 3 12 17 8 10 13 15 15 12 11 11 7 11 8 7 6 6 5 7 10
47 44 40 39 37 36 34 32 29 23 24 24 24 27 28 26 20 10 8 9 9 4 3 1 5 12 4 19 18 18 15 17 11 12 10 9 4 8 7 5 2 7 7 5 11
49 45 42 39 38 36 35 35 31 24 24 23 24 27 27 23 16 9 9 7 7 4 6 6 10 11 18 14 13 9 10 11 8 10 9 1 3 4 3 3 1 3 5 1 4
51 48 44 40 38 38 36 36 31 25 23 26 26 26 23 19 13 10 11 6 2 1 7 3 6 9 11 11 7 9 13 13 8 4 6 3 9 4 2 4 2 2 4 4 9
54 53 48 43 40 39 38 36 31 27 24 25 26 24 19 15 12 13 11 7 4 6 5 1 4 14 20 16 11 5 12 11 7 5 4 12 13 11 5 8 6 7 5 3 4
57 54 52 46 42 41 39 36 32 26 28 25 24 20 16 13 9 9 14 9 9 8 8 3 6 10 19 17 4 6 13 16 14 14 16 14 15 7 14 18 12 8 8 5 4
58 55 51 47 43 44 41 37 31 30 30 26 21 20 14 10 11 15 16 13 11 11 11 6 9 17 17 5 3 7 15 24 21 19 14 11 18 7 11 8 7 7 5 6 5
63 57 52 50 46 44 40 38 36 37 28 28 23 22 15 10 12 17 18 18 16 14 9 10 12 18 14 12 11 6 13 18 18 22 18 18 21 11 10 7 4 5 7 5 5
64 61 55 50 51 47 44 42 42 35 30 31 28 26 17 12 13 16 17 19 18 16 16 12 16 18 11 15 16 15 14 20 21 21 18 22 21 13 6 5 8 7 4 5 4
64 63 57 51 52 50 48 47 43 34 31 32 33 31 21 13 14 16 17 22 25 22 24 20 23 21 18 17 19 15 13 17 24 22 22 16 20 19 14 11 12 7 3 6 7
64 63 59 50 54 53 53 47 45 35 36 36 34 31 22 17 16 15 17 21 26 21 20 21 21 20 20 14 22 15 16 15 25 20 19 17 18 22 17 13 11 9 10 10 11
66 64 58 58 61 60 52 48 47 37 38 37 35 34 26 20 17 15 16 20 23 23 22 21 21 20 17 21 15 19 13 17 17 17 17 18 18 19 17 14 15 16 14 16 17
68 66 61 62 66 59 53 49 48 38 41 39 38 37 31 21 19 18 17 21 23 25 24 20 22 21 15 14 26 26 20 15 16 16 21 21 19 18 18 19 19 21 22 22 23
71 68 69 62 65 60 55 52 47 41 43 44 41 38 31 24 23 20 17 25 25 27 23 20 21 22 19 14 16 23 22 18 21 23 23 25 22 17 23 24 24 29 30 28 26
75 75 72 67 59 60 59 55 48 41 44 44 40 40 32 27 26 22 19 24 23 27 25 25 25 23 20 17 22 24 22 22 25 26 25 24 23 22 25 26 27 30 29 29 26
82 78 72 66 61 60 63 59 52 46 49 48 47 44 32 30 28 27 20 27 27 28 34 33 28 23 22 22 23 25 26 24 26 27 27 22 19 17 24 27 28 30 31 30 28
84 75 71 63 59 59 62 61 55 46 50 50 47 41 33 32 30 28 22 28 27 26 31 30 27 27 27 25 26 27 30 29 26 25 28 26 22 22 21 25 27 29 31 32 33
82 71 69 65 60 62 58 59 52 49 46 46 44 41 37 29 29 29 28 30 30 27 29 28 29 27 27 27 28 32 29 30 29 27 30 28 26 23 25 25 26 27 30 32 34

GFSSW_500_spd_063.txt.gz
Wind_Speed
36 35 33 32 32 31 31 30 29 29 27 25 28 29 30 31 38 43 47 47 29 23 20 18 18 16 14 14 13 11 14 17 19 23 25 28 22 25 24 23 19 22 23 25 24
39 37 36 35 35 34 33 32 31 29 28 26 28 28 29 32 38 43 47 45 28 19 16 14 14 11 15 14 9 11 16 20 21 24 26 23 18 22 21 17 17 19 26 27 32
42 40 38 39 37 35 34 34 33 30 28 26 26 28 29 32 37 44 46 38 28 21 14 11 7 7 17 17 14 16 18 25 27 26 26 27 22 17 19 21 17 18 22 25 31
43 42 41 40 39 37 34 35 33 30 27 24 24 27 29 32 39 43 42 31 26 22 9 6 3 7 16 20 18 16 16 23 25 27 23 20 20 21 27 26 27 26 23 23 19
46 44 42 41 39 37 35 35 33 30 26 23 24 27 28 31 39 40 41 27 23 13 7 6 9 10 11 21 20 16 17 18 22 20 17 17 20 26 25 26 27 26 25 23 15
46 45 43 39 37 37 37 34 32 30 27 22 24 26 27 31 36 39 36 22 14 10 5 8 8 10 10 23 21 19 16 11 13 20 18 16 19 19 13 15 15 13 9 14 13
47 45 42 40 38 37 35 34 33 30 28 22 24 26 26 30 36 37 31 14 14 9 7 9 10 11 12 14 21 23 22 18 14 14 16 19 4 3 4 6 5 11 18 17 15
50 49 45 41 41 38 36 36 34 30 28 22 24 25 26 28 34 35 24 15 11 11 10 9 12 9 8 18 15 25 25 17 19 16 17 8 4 7 5 6 4 7 15 11 19
53 49 46 47 43 39 36 36 34 31 27 23 24 23 26 27 31 35 18 12 10 11 8 8 9 7 8 15 18 16 22 23 9 11 15 14 5 6 11 12 16 13 16 17 16
52 51 51 46 42 40 37 37 34 31 27 25 23 23 25 27 31 31 16 10 9 11 6 6 7 3 5 17 18 18 19 17 12 18 17 14 8 10 9 11 12 11 10 11 9
54 50 48 41 40 39 39 35 35 31 27 27 24 24 25 28 28 28 14 7 8 2 2 3 2 8 10 12 14 6 4 14 17 18 15 11 9 4 8 9 13 12 8 9 9
54 51 48 44 39 40 37 38 34 31 28 28 24 24 25 27 28 25 13 4 3 2 0 3 3 8 9 10 15 13 19 16 15 13 12 11 8 6 2 8 12 7 8 8 8
53 50 47 44 41 41 38 39 35 33 32 28 23 25 25 25 25 21 12 8 2 5 5 4 11 9 15 17 14 15 10 10 10 10 11 11 10 4 4 4 7 7 8 5 6
55 52 50 47 44 42 42 37 38 35 35 26 27 26 22 24 21 16 10 12 6 7 5 6 11 5 15 8 11 10 15 14 11 8 4 4 7 2 4 7 4 2 6 5 8
59 55 53 49 47 46 45 40 37 36 36 29 29 25 23 22 20 13 12 13 10 10 8 8 9 14 17 9 7 8 9 15 14 6 8 7 4 4 7 9 4 5 7 8 9
62 59 56 52 50 49 47 44 41 38 38 31 27 24 22 21 18 14 12 13 14 13 16 11 9 14 18 17 9 6 8 16 14 14 13 12 10 5 9 7 4 11 11 7 8
63 62 58 54 52 51 50 47 45 44 34 33 27 23 23 22 19 14 15 14 16 16 19 20 13 15 17 18 16 10 13 14 15 18 17 18 18 9 8 8 7 9 8 7 4
64 63 61 56 57 54 49 47 45 40 37 34 30 29 24 24 20 16 16 18 20 19 23 20 19 20 21 19 16 20 17 15 17 19 22 23 21 15 12 11 10 12 12 6 5
64 64 61 58 58 57 53 51 42 39 37 37 37 34 29 26 24 18 16 17 18 18 21 25 23 25 26 20 17 18 19 20 23 22 23 19 17 13 15 15 14 14 13 10 10
66 65 61 55 59 60 58 50 46 41 38 39 39 34 29 28 27 21 15 16 18 22 23 26 27 28 28 23 19 17 20 20 20 21 23 21 21 19 16 18 19 14 16 17 15
72 69 64 58 61 64 55 50 49 44 43 42 43 41 32 31 24 21 17 17 19 22 25 28 30 28 28 28 16 17 16 16 17 22 18 19 19 23 18 17 19 17 19 18 17
77 73 69 65 69 60 54 53 53 44 48 47 46 41 35 31 27 23 19 21 21 20 22 29 30 27 28 22 21 22 23 22 21 19 22 23 22 21 18 18 19 20 21 22 23
81 77 75 69 70 58 55 57 54 47 50 47 45 47 40 35 31 24 21 22 23 23 23 27 27 26 24 25 20 16 18 26 24 25 27 26 19 18 19 22 25 26 28 29 30
88 85 83 76 64 61 60 56 55 49 51 52 49 49 43 38 33 28 21 23 22 24 27 27 27 27 22 22 22 20 18 24 26 30 29 24 22 20 21 26 30 29 29 30 29
96 91 83 79 69 62 61 58 58 52 54 52 52 51 45 40 35 29 22 23 21 24 26 26 28 26 29 28 24 26 23 27 31 30 27 25 27 24 23 26 29 28 27 29 25
98 91 84 75 70 66 64 60 57 51 53 53 55 49 47 42 35 27 23 25 22 26 28 26 28 29 29 26 25 27 27 30 31 29 26 28 32 31 25 27 27 26 25 25 26
98 90 83 79 74 71 61 59 57 51 51 49 48 45 46 39 33 30 30 28 26 28 27 30 30 28 26 29 31 30 26 28 30 33 34 34 31 30 26 24 25 25 25 27 29

GFSSW_500_spd_069.txt.gz
Wind_Speed
41 41 41 41 40 40 39 36 35 33 34 35 34 35 35 34 31 34 37 41 43 45 46 43 26 16 13 13 4 3 10 10 12 15 18 19 17 6 11 18 16 18 22 21 20
42 40 41 41 40 40 40 37 35 34 35 35 34 34 33 32 31 33 36 40 41 43 44 38 20 14 12 9 6 5 9 13 13 16 19 19 18 15 8 13 17 20 20 20 21
41 41 41 42 40 40 39 39 37 36 35 35 34 34 32 29 29 32 34 39 39 41 42 31 16 11 11 11 6 8 7 12 13 13 17 14 10 16 17 20 16 11 18 25 24
44 41 43 42 48 40 39 39 38 37 36 34 32 32 30 28 30 30 34 36 37 38 34 26 13 10 12 12 10 10 6 4 6 9 12 15 18 17 18 22 25 23 24 26 27
47 44 45 46 45 48 43 41 41 38 36 32 30 29 28 28 29 30 33 34 35 33 25 19 16 10 11 10 12 12 6 3 3 4 6 13 15 16 20 27 26 27 28 27 29
51 49 48 48 46 44 41 44 39 38 34 30 28 28 27 27 29 29 32 32 32 30 20 16 13 10 11 8 9 6 11 9 6 6 8 10 13 13 19 19 20 17 16 19 22
53 51 50 50 48 41 44 47 43 38 35 30 29 29 28 26 27 29 31 29 30 25 18 17 14 12 12 7 10 8 9 13 13 10 13 10 10 13 11 13 10 9 9 14 14
55 55 52 50 50 42 42 43 45 43 37 32 30 30 28 25 26 28 29 26 27 18 19 17 10 10 11 7 10 8 6 10 13 14 12 13 8 4 4 7 4 5 7 17 21
55 53 51 49 49 47 43 44 45 39 38 35 33 31 27 25 27 26 27 25 23 17 13 13 9 7 9 9 9 6 6 9 8 10 8 6 7 8 3 8 10 17 14 19 20
55 55 51 51 49 48 46 45 44 40 40 38 36 32 27 26 27 25 27 23 22 15 10 11 12 8 6 5 6 7 9 7 3 5 8 11 11 10 7 8 7 9 14 18 18
53 54 53 52 52 48 49 47 42 39 39 40 39 33 26 27 27 23 26 21 20 14 7 11 12 9 10 10 11 7 5 10 12 7 6 11 8 9 9 5 7 8 11 12 11
57 55 53 53 50 50 48 50 45 40 36 32 34 28 29 29 27 23 24 20 19 13 7 10 12 10 11 8 6 8 7 8 11 12 14 12 10 6 7 8 5 5 7 10 11
59 58 58 54 49 51 49 47 38 39 41 29 31 28 31 30 26 23 23 20 18 12 10 10 9 7 5 5 5 6 7 9 7 8 13 10 8 7 6 7 9 4 3 4 8
62 59 59 56 51 50 50 46 42 34 35 29 34 30 32 29 25 26 22 19 17 12 11 12 7 5 5 9 6 5 4 3 5 8 11 9 9 7 8 9 5 3 6 8 8
63 61 60 59 56 51 50 47 45 39 38 29 32 31 29 29 23 22 22 20 17 14 12 16 9 9 9 10 8 7 8 9 11 10 8 6 7 13 8 11 7 9 11 12 12
65 62 61 58 58 55 52 48 46 43 40 31 30 32 30 31 28 28 26 22 21 16 11 16 14 17 16 14 13 12 12 10 12 13 11 11 7 8 9 13 14 16 17 17 19
67 64 62 59 54 57 57 50 47 46 38 38 32 28 27 29 29 29 24 20 17 14 9 15 17 18 19 19 19 18 15 13 13 13 12 12 10 9 9 10 12 11 14 16 24
70 66 63 60 54 59 57 53 49 46 42 39 35 35 29 28 30 26 26 22 18 16 17 16 17 20 15 18 23 23 22 19 16 13 12 13 14 11 13 15 15 11 13 13 15
75 72 67 61 56 59 60 58 48 45 42 40 40 32 31 33 31 27 26 21 18 16 20 19 18 21 21 20 24 24 24 23 24 21 19 16 16 16 17 15 12 15 14 11 14
80 77 70 64 61 61 63 59 49 44 41 41 41 39 37 31 32 30 30 23 20 18 19 22 21 21 25 26 25 26 25 24 26 25 22 18 14 16 16 15 13 16 19 17 17
84 82 74 70 67 68 67 60 53 49 45 43 44 43 39 41 35 30 30 24 22 21 20 21 21 21 23 27 24 26 29 31 30 27 26 22 16 15 11 16 16 17 19 21 21
82 84 80 77 76 72 67 60 56 51 48 45 43 42 41 42 41 37 32 25 23 23 20 18 21 22 21 25 27 28 29 32 33 30 31 26 20 17 15 14 17 17 21 22 24
81 84 85 83 82 73 66 65 60 53 51 45 44 43 41 40 38 36 34 30 28 27 22 20 20 19 23 25 24 28 25 29 32 34 33 33 31 24 16 17 19 21 23 24 25
72 85 89 88 79 73 71 67 62 56 52 49 45 44 43 41 38 35 34 29 27 28 26 27 22 18 17 15 20 24 21 25 31 30 28 26 21 17 17 18 20 23 24 25 27
57 78 85 90 86 75 71 69 65 60 54 52 48 47 45 43 40 36 32 30 29 29 31 29 25 20 16 19 23 22 21 25 27 25 30 19 16 14 18 19 22 25 28 28 28
55 63 81 87 79 82 78 72 67 63 54 52 49 46 46 46 41 39 35 34 34 31 32 32 28 22 20 20 22 22 22 25 25 24 29 24 17 19 21 21 23 28 29 30 30
50 52 67 86 86 85 78 71 66 64 55 54 48 44 47 44 39 42 42 39 38 35 33 34 30 24 24 24 24 22 16 21 24 24 25 24 20 21 24 26 25 25 28 30 30

GFSSW_500_spd_072.txt.gz
Wind_Speed
37 37 37 36 35 36 35 36 37 35 34 32 33 35 33 35 34 32 31 33 35 39 41 41 41 25 12 13 9 3 7 10 6 8 13 14 11 14 8 12 15 12 13 15 15
40 40 38 37 37 35 34 35 36 35 35 34 33 35 34 34 33 30 31 32 35 38 37 38 36 20 12 12 5 5 7 9 7 8 10 13 13 12 16 10 15 17 16 14 16
41 41 39 40 38 37 36 35 34 35 37 35 33 32 33 32 30 30 30 31 34 37 36 35 28 20 11 10 6 8 7 7 7 8 7 9 11 6 15 17 17 15 17 17 20
42 42 41 40 41 38 38 38 37 38 37 35 32 31 32 31 30 29 29 31 33 34 33 30 25 19 12 8 9 10 7 4 1 4 5 6 11 13 14 18 20 24 26 21 21
47 45 42 41 40 40 38 39 40 40 37 36 37 33 32 29 27 29 28 29 31 32 30 27 23 16 11 6 7 8 11 3 3 3 5 9 11 13 18 21 24 23 23 24 25
51 50 48 46 43 42 43 41 41 42 34 33 36 34 30 28 27 29 27 27 29 29 28 26 21 14 10 9 6 7 12 9 6 2 2 9 12 13 15 19 17 16 17 18 20
56 53 53 52 51 47 47 44 44 40 39 38 34 33 30 29 28 29 27 26 28 26 24 22 18 12 8 8 8 7 3 12 12 9 8 11 14 15 16 16 15 14 13 15 17
56 58 56 53 51 46 46 45 44 41 39 36 32 36 30 30 27 27 26 25 25 24 22 19 17 10 6 6 7 8 3 3 7 10 11 10 11 13 10 7 9 11 13 13 17
55 55 57 55 53 51 48 47 44 41 39 37 34 31 31 31 29 28 26 23 24 22 19 15 12 10 5 4 6 5 7 9 10 9 6 6 9 10 4 4 9 3 4 16 17
56 53 51 51 50 49 47 47 46 42 42 40 36 33 30 31 30 28 25 22 22 21 17 12 10 6 5 3 4 9 10 11 10 8 12 6 10 8 1 5 5 9 12 12 15
57 55 52 48 48 47 47 47 47 47 42 44 37 34 31 31 32 29 24 22 22 19 15 10 9 8 9 9 10 6 7 10 12 9 10 11 15 14 6 1 3 2 5 12 11
61 58 54 53 49 48 47 47 48 48 44 42 41 35 33 35 35 32 25 23 22 19 12 11 10 8 10 9 5 2 6 12 11 9 6 12 5 3 4 3 1 2 1 2 5
63 62 58 55 52 52 50 47 47 49 49 39 41 37 34 34 30 31 26 23 22 20 12 11 11 8 9 7 4 3 2 3 4 6 7 7 6 7 5 5 5 1 1 2 3
63 65 63 58 56 54 52 49 49 49 50 44 40 39 34 33 31 32 26 25 23 19 14 11 13 9 8 6 5 3 2 1 2 3 3 5 4 11 9 9 5 3 4 5 5
65 65 65 64 59 57 54 52 52 49 49 45 40 37 35 38 27 30 26 27 22 20 15 11 17 12 9 8 10 8 4 3 4 3 2 4 10 12 10 11 7 7 9 9 10
72 66 66 64 63 58 57 56 55 50 54 44 39 35 36 37 31 32 30 26 24 23 17 14 17 15 14 10 13 11 9 6 5 6 9 10 8 9 11 15 12 12 15 17 16
72 71 67 66 62 60 59 58 56 56 51 45 37 35 33 37 33 34 31 27 26 22 15 13 17 18 17 15 16 17 14 9 11 10 7 9 7 12 13 15 17 17 14 16 17
71 73 71 67 64 62 60 61 62 56 53 46 42 41 33 33 35 34 34 32 29 23 22 16 17 19 18 18 20 24 21 14 11 10 11 12 7 11 19 21 20 18 18 17 18
67 72 74 71 68 65 64 67 60 58 53 45 46 39 40 33 33 33 31 27 27 23 21 20 19 15 18 20 20 22 24 23 22 21 20 18 16 14 16 17 21 18 24 19 17
65 73 75 73 73 70 69 67 63 60 52 46 46 46 37 40 35 30 30 29 29 26 26 24 24 22 20 21 25 23 23 23 24 23 23 22 17 17 17 17 17 19 19 23 21
53 71 75 76 77 77 76 63 64 63 54 47 44 45 44 32 34 33 30 26 27 27 27 26 25 24 22 21 24 25 24 22 24 26 26 26 19 17 18 16 14 17 21 22 22
46 63 68 77 81 82 72 64 66 63 56 49 48 45 46 45 36 35 33 26 28 29 27 23 27 25 21 22 24 27 28 27 28 26 28 30 26 25 22 20 18 19 21 23 25
47 48 58 69 83 81 66 70 69 64 57 52 49 45 45 43 42 41 36 30 30 31 29 26 29 27 25 24 24 25 24 27 27 28 30 28 23 23 21 23 24 22 21 22 23
54 51 50 68 79 77 78 73 70 65 59 56 51 46 45 43 46 42 37 40 32 33 32 30 31 28 24 18 21 24 25 25 26 30 27 27 16 19 19 19 19 21 20 20 21
57 50 41 68 81 83 79 74 73 69 61 56 54 50 46 44 44 42 38 35 33 35 33 37 36 28 23 22 24 22 23 23 27 24 28 19 20 16 17 18 19 20 20 22 23
56 50 43 48 73 83 85 82 76 69 61 56 55 50 46 46 44 43 38 34 37 37 37 38 36 30 28 24 23 24 22 24 24 25 23 21 20 18 19 20 19 19 20 24 27
53 52 46 36 64 82 87 80 75 71 63 58 54 47 46 44 41 33 41 38 40 41 38 37 36 33 30 25 26 25 19 21 23 23 23 23 19 19 20 20 20 20 21 22 25

GFSSW_500_spd_075.txt.gz
Wind_Speed
40 41 40 39 36 35 34 33 32 33 32 33 33 33 33 35 34 33 33 32 33 33 34 35 36 38 24 16 12 8 9 7 10 9 16 10 14 13 16 12 16 14 9 11 4
41 41 40 39 38 38 36 35 32 32 31 32 32 34 35 34 35 31 31 32 32 31 32 32 33 31 18 15 11 3 4 6 16 13 13 13 11 12 11 18 15 17 17 13 11
42 42 42 40 38 37 37 35 34 33 32 32 32 32 35 32 34 31 32 31 30 30 30 29 30 24 13 12 12 4 5 12 17 17 13 11 11 13 7 10 17 19 18 18 16
45 43 43 41 41 39 36 36 34 32 32 32 35 34 35 32 34 32 29 29 29 28 28 27 26 21 10 10 11 12 6 14 11 13 8 7 10 10 14 15 18 19 21 23 16
51 48 46 44 43 42 40 37 36 34 33 32 34 36 35 36 35 29 28 29 29 27 25 24 23 19 9 8 9 12 8 14 11 7 7 6 9 10 13 17 20 23 20 20 23
52 53 51 50 47 45 44 42 40 39 36 37 34 34 34 32 29 29 28 28 28 25 22 22 21 18 10 10 8 9 12 11 11 9 11 9 13 13 14 16 17 15 15 17 18
52 52 52 52 52 49 48 46 45 44 42 38 38 35 35 34 32 29 28 27 26 24 21 19 18 17 14 13 9 5 12 13 8 10 11 11 14 9 13 16 13 13 13 17 20
54 53 53 51 52 53 51 48 48 46 39 39 37 36 30 34 32 32 28 28 25 23 19 18 15 14 12 12 8 7 7 9 19 8 16 11 15 13 16 14 15 13 13 16 22
56 55 54 54 52 53 52 49 50 49 44 39 40 35 33 31 30 29 28 28 24 22 18 16 13 11 9 6 8 8 10 7 15 16 17 8 8 10 15 12 12 15 9 17 25
57 56 54 53 54 53 51 51 48 48 47 42 39 37 39 32 31 29 30 27 24 21 18 14 11 8 10 10 2 11 6 16 11 16 13 7 6 19 14 13 11 6 8 11 19
59 59 57 54 52 51 50 51 47 47 46 43 41 40 43 38 32 29 30 27 26 21 17 13 12 8 10 11 7 15 14 13 10 12 17 9 5 12 19 12 8 12 12 14 14
61 59 59 58 54 53 50 52 48 48 43 43 42 41 42 39 34 32 34 29 25 22 19 14 11 10 11 11 7 8 9 9 9 16 8 6 5 10 14 7 6 7 8 10 11
64 60 58 58 56 56 52 54 49 48 44 42 44 43 41 44 35 39 35 33 28 26 20 14 12 11 10 11 7 4 6 9 6 11 2 4 2 9 15 13 7 5 7 6 6
71 67 61 58 60 56 57 55 50 51 48 43 43 44 44 45 40 36 37 35 33 25 22 16 14 14 12 12 9 6 3 2 3 3 12 5 13 5 13 16 11 7 7 6 6
75 73 67 62 60 58 59 55 54 52 51 47 46 45 46 47 42 36 30 34 28 24 25 15 15 16 16 13 10 10 7 3 3 4 4 8 4 15 8 14 13 9 9 10 11
75 73 70 65 62 61 60 60 57 55 54 49 48 45 44 46 44 42 35 33 28 30 26 22 18 17 17 16 12 12 10 6 5 6 8 5 6 9 9 7 11 11 14 13 14
67 68 67 64 61 67 64 64 60 62 53 52 49 49 41 44 42 44 40 37 34 32 22 23 19 17 17 17 15 12 10 5 10 10 8 9 12 12 7 18 20 20 18 22 19
55 57 60 61 66 70 68 68 70 54 57 59 53 51 46 44 42 46 41 41 37 33 27 24 24 20 14 17 17 17 14 10 9 13 15 15 11 9 19 21 17 18 23 23 23
44 45 54 59 68 73 74 77 66 54 58 58 57 57 39 47 44 46 43 43 35 32 30 28 23 20 22 21 21 16 21 16 22 22 19 15 13 15 18 16 18 21 26 25 24
44 42 38 59 67 72 78 81 60 58 60 61 60 55 46 43 48 44 38 40 39 36 32 32 25 27 21 22 23 25 20 21 22 19 19 12 15 14 14 18 20 17 22 23 23
46 48 38 42 56 65 81 75 59 64 64 61 61 53 46 48 46 46 33 35 37 39 37 34 32 28 30 24 21 21 24 26 17 19 15 15 13 19 17 17 16 18 16 19 22
46 45 45 44 52 65 75 67 67 68 65 62 66 52 50 49 51 47 44 33 31 35 39 34 32 32 26 24 23 18 22 22 24 22 24 24 24 24 27 23 24 23 22 22 24
49 45 43 46 45 60 70 74 76 72 67 64 67 53 47 48 52 47 45 37 32 36 40 35 40 35 26 29 25 24 23 22 23 26 27 27 24 15 23 18 21 20 24 23 24
54 49 48 46 48 41 67 78 81 73 68 65 62 53 49 52 50 44 29 36 31 35 33 37 37 35 31 22 21 22 24 26 26 29 26 27 23 16 20 24 14 22 20 20 23
58 48 41 43 39 32 53 73 80 75 70 69 65 54 49 51 48 52 40 39 38 39 38 39 38 35 31 29 23 21 23 25 26 25 28 19 22 16 19 18 24 23 21 21 23
61 48 43 42 40 42 40 60 79 76 73 70 64 55 53 49 51 47 53 48 47 42 40 41 38 36 36 35 29 30 25 25 23 22 23 23 22 18 25 26 24 21 23 24 25
61 49 47 41 42 46 38 55 72 76 75 72 63 57 52 46 50 49 40 43 39 47 49 40 41 38 40 33 31 38 23 28 22 23 23 23 22 19 24 25 25 22 24 24 27

GFSSW_500_spd_078.txt.gz
Wind_Speed
36 38 38 37 37 36 36 36 34 34 32 31 32 30 31 32 34 33 32 30 30 32 31 28 28 30 33 24 13 8 4 4 9 8 29 24 25 22 24 17 18 14 14 5 11
40 39 39 38 38 37 36 36 35 32 32 32 33 32 33 32 35 33 33 30 30 29 29 26 25 28 29 21 10 6 2 12 5 15 27 21 22 21 14 18 19 18 5 13 12
42 42 41 40 39 38 37 36 34 33 32 31 30 30 32 31 35 31 30 29 32 26 28 24 24 25 26 17 10 6 6 14 19 21 26 19 19 15 16 27 18 12 14 9 15
44 43 43 43 42 41 39 37 36 34 33 31 31 30 32 32 33 29 32 31 29 26 27 22 21 22 22 13 12 15 11 9 20 21 16 15 15 13 14 20 20 18 18 14 17
48 47 47 46 46 44 42 41 39 38 35 33 32 32 32 34 32 28 29 24 26 26 26 21 20 20 20 10 14 14 13 11 19 14 16 15 12 10 20 10 15 18 16 16 17
49 47 47 47 48 47 46 44 43 42 38 37 37 35 34 30 36 32 29 25 26 25 25 20 18 18 17 14 14 12 13 9 2 18 11 15 21 15 23 17 11 17 12 15 15
50 49 48 50 48 46 47 46 46 45 42 41 39 38 33 28 35 33 27 26 28 25 26 20 18 18 16 14 14 13 13 10 15 7 10 16 20 21 21 19 15 20 18 14 18
56 54 50 49 50 48 46 47 47 47 45 44 43 42 32 33 32 32 27 25 25 24 24 19 17 16 13 10 12 5 5 15 15 15 9 17 18 14 18 20 16 22 24 22 21
56 55 52 51 49 50 48 49 48 47 46 44 45 42 34 35 32 33 30 27 25 23 23 19 17 15 12 9 6 3 7 14 15 15 22 15 17 12 2 18 19 19 22 23 24
59 57 56 52 51 49 49 50 51 50 48 45 44 44 38 36 31 32 34 30 27 26 22 21 16 15 12 7 3 18 7 10 6 23 16 14 7 20 23 22 24 15 14 16 18
59 56 56 58 54 50 50 51 50 51 48 45 44 43 40 38 35 36 32 31 31 29 21 21 16 15 15 4 7 14 12 13 12 19 22 17 4 21 18 14 21 16 13 17 21
60 57 55 55 54 50 50 51 52 51 51 44 42 43 42 41 36 38 32 30 31 25 27 26 14 14 15 6 15 14 15 8 11 14 13 9 3 11 16 12 17 19 8 12 14
61 60 59 57 54 52 53 52 54 51 54 47 43 43 45 41 35 38 36 30 32 29 31 29 18 15 15 11 11 14 12 6 12 16 14 7 6 5 24 12 17 19 11 7 10
64 63 63 62 58 56 56 56 55 53 53 47 44 43 45 45 36 36 36 33 35 37 27 32 21 17 17 13 12 14 7 7 8 10 9 11 4 9 18 14 20 13 14 10 10
70 68 65 63 62 59 62 59 52 50 53 47 50 45 45 47 38 34 35 39 37 34 30 27 24 19 19 15 15 11 15 9 8 6 7 8 3 10 15 13 17 22 15 9 10
70 69 69 66 61 61 61 63 58 55 54 50 49 47 47 46 43 43 42 40 33 37 33 27 26 23 21 18 16 14 14 12 7 10 9 6 9 16 11 6 13 21 17 14 12
65 63 64 64 57 60 59 62 64 66 51 49 49 49 49 47 42 44 41 44 38 39 38 27 30 26 23 22 18 16 16 15 13 13 4 12 13 11 20 11 15 18 24 24 22
54 55 54 53 53 56 61 66 71 62 52 48 52 52 52 48 45 42 42 42 39 41 32 33 34 25 22 20 18 18 17 18 11 6 14 20 10 5 7 14 15 15 17 23 28
39 40 41 42 44 53 63 70 71 52 48 54 53 52 54 48 47 41 42 39 36 44 42 34 30 25 26 22 24 17 23 15 18 20 17 13 6 5 16 23 23 17 17 17 20
38 37 32 35 39 42 56 69 66 48 56 45 43 54 45 50 47 42 47 44 39 45 44 31 24 25 23 25 28 26 16 18 23 25 18 18 6 20 21 10 16 14 22 18 16
44 42 37 41 42 44 38 43 59 55 66 51 42 36 52 46 28 41 43 42 41 45 44 35 27 24 27 33 27 28 29 26 24 17 20 19 13 25 24 17 9 15 24 21 14
45 43 40 43 46 44 33 22 24 60 70 60 56 55 45 35 42 32 48 42 47 43 42 44 33 34 34 33 30 27 24 24 29 24 18 24 19 16 20 20 24 32 30 32 28
48 45 40 43 43 41 34 29 28 50 68 62 64 51 37 46 45 47 47 41 46 48 46 43 47 32 33 28 36 33 26 22 21 19 29 29 28 23 21 24 24 20 22 19 28
53 49 43 42 36 37 39 35 39 35 58 60 59 57 44 46 34 49 46 45 45 50 50 44 47 48 41 36 27 31 26 30 26 26 24 27 24 21 17 22 21 23 21 18 22
58 54 49 44 37 36 32 37 37 30 47 62 66 60 38 43 26 44 48 46 41 50 52 46 46 46 45 42 24 25 24 29 32 31 30 23 22 19 14 20 29 29 19 20 18
61 50 52 51 44 38 34 32 35 36 33 57 72 56 46 33 47 44 40 42 39 50 54 50 52 41 43 40 38 34 26 24 27 30 29 27 24 22 19 20 25 27 28 30 32
60 53 57 53 48 39 36 34 32 32 32 43 65 64 47 36 30 32 39 40 33 41 55 46 45 43 47 39 40 45 33 32 31 29 25 25 23 24 23 23 30 37 37 27 28

GFSSW_500_spd_081.txt.gz
Wind_Speed
37 37 35 34 33 32 32 33 33 32 31 30 29 29 28 27 30 28 27 29 30 27 26 27 27 24 23 25 19 11 11 4 2 5 17 27 27 27 34 26 24 24 32 24 11
40 38 38 37 37 34 34 34 32 31 31 31 28 28 29 24 28 25 29 29 27 25 26 22 25 24 22 20 19 9 9 9 7 17 21 25 29 32 31 20 21 25 27 28 10
43 42 42 40 39 38 36 35 34 33 31 29 28 25 29 27 28 24 27 28 26 25 22 22 24 22 21 23 19 9 5 12 11 14 27 29 23 17 18 18 17 22 20 19 21
46 44 43 43 41 39 38 36 36 35 33 31 30 29 27 26 29 29 27 25 24 21 20 20 22 21 21 24 23 9 7 12 13 18 21 12 16 17 18 17 25 20 19 13 16
47 47 46 46 45 45 43 41 40 38 35 34 33 31 30 27 26 33 28 28 24 22 22 19 20 19 19 23 22 13 6 13 15 15 13 12 15 14 21 24 22 24 23 15 15
50 49 48 48 46 45 44 42 42 43 39 37 36 34 32 24 31 31 26 29 26 22 22 22 17 19 19 20 18 12 10 13 11 14 14 17 13 16 18 12 16 22 26 16 16
53 51 49 45 44 46 45 45 44 43 41 41 38 36 35 23 33 31 27 26 29 21 21 22 17 16 18 19 18 12 11 7 7 12 7 13 16 9 14 18 20 22 25 24 19
56 55 50 47 46 45 46 44 46 46 44 43 41 38 32 29 30 31 30 29 29 21 21 20 18 16 15 20 16 9 4 6 10 9 9 17 18 17 16 14 16 18 21 25 33
53 55 55 56 56 54 52 50 49 47 45 44 42 38 34 30 30 28 31 31 34 24 23 23 20 15 16 18 15 12 5 8 10 12 13 13 17 6 7 16 22 24 23 24 31
50 49 51 50 50 50 52 48 48 48 47 44 43 40 38 35 29 29 31 34 37 29 23 23 21 15 14 17 17 12 4 12 15 16 10 18 19 9 9 9 17 21 19 21 25
50 51 52 51 51 52 50 49 53 53 50 43 42 39 40 39 34 30 32 35 40 32 25 25 22 12 15 16 20 14 5 15 11 14 17 18 15 14 8 8 18 24 18 16 20
51 51 51 53 52 51 50 49 52 56 52 49 44 43 38 43 36 33 34 36 38 33 28 28 18 14 15 16 21 16 11 12 13 9 16 15 10 17 13 15 12 22 14 14 15
55 52 51 51 51 52 49 49 50 52 54 48 45 44 40 42 41 36 36 36 36 39 28 29 17 21 19 18 20 15 10 9 12 19 20 14 6 13 7 10 9 17 10 10 13
56 55 55 54 52 54 53 51 52 52 53 53 44 44 43 45 44 40 39 39 35 38 30 31 20 26 24 17 19 17 14 10 14 12 14 8 4 11 10 8 3 5 5 11 12
59 59 59 58 58 56 54 55 54 52 53 50 53 47 45 43 42 41 40 42 39 36 35 23 22 24 25 17 20 17 18 16 13 10 11 10 8 10 12 11 11 5 7 9 10
61 62 61 60 60 59 57 54 55 54 53 54 51 52 47 41 43 48 45 41 40 40 39 34 24 29 24 22 24 22 20 15 16 13 13 10 14 12 12 11 10 12 12 12 8
62 62 62 61 59 59 57 56 57 58 49 47 48 50 48 41 40 46 48 47 44 43 39 31 25 29 30 28 28 24 23 18 21 19 12 19 12 8 12 10 10 11 12 12 9
60 59 57 56 56 56 57 57 60 57 50 41 45 48 50 44 41 43 46 47 47 45 41 35 29 30 28 26 29 23 24 21 21 20 19 20 13 13 13 7 13 17 18 17 14
53 52 51 49 48 51 52 59 60 52 47 38 47 41 50 48 47 47 47 46 46 41 39 35 33 26 28 28 30 23 28 13 23 24 22 12 1 16 13 9 19 22 20 23 19
45 44 41 40 40 42 47 53 50 41 43 47 57 41 35 25 36 39 42 45 44 41 35 34 36 35 34 28 31 29 23 24 27 26 24 12 12 17 20 23 24 25 26 18 17
33 33 30 34 40 37 31 14 9 22 42 57 56 51 45 43 41 34 34 41 38 36 34 33 41 37 40 38 35 28 32 31 22 29 29 24 18 21 20 19 24 20 17 18 24
29 27 26 31 36 32 23 26 21 21 23 52 55 58 51 43 48 43 32 34 44 37 39 39 38 44 42 40 35 29 29 31 31 24 28 27 20 27 19 19 16 18 23 25 31
39 37 36 35 34 33 32 30 27 27 26 30 44 52 63 55 56 43 35 27 32 38 39 37 35 50 42 46 39 37 32 30 34 32 34 29 19 22 17 15 16 24 20 20 26
42 40 40 39 32 29 29 25 26 27 30 25 18 55 50 66 48 37 44 37 31 38 42 42 38 44 51 45 42 40 38 34 33 35 26 25 27 28 25 23 25 23 22 23 28
46 44 42 42 36 33 29 23 22 23 30 29 16 50 58 56 52 38 32 26 45 37 37 38 38 42 51 44 42 43 34 28 34 34 33 20 25 23 25 24 31 31 27 28 25
52 48 44 43 42 40 34 28 28 23 28 23 24 41 64 47 43 41 41 36 41 40 41 42 39 39 55 46 50 36 37 27 26 29 35 35 29 26 22 22 28 23 31 28 29
55 50 50 46 44 41 37 37 32 25 28 28 30 24 62 65 50 43 37 34 26 38 41 44 41 41 55 58 46 49 39 35 29 27 26 32 33 33 26 25 32 34 34 30 33

GFSSW_500_spd_084.txt.gz
Wind_Speed
42 41 39 37 36 35 32 31 30 29 28 27 26 27 26 22 26 21 20 21 23 25 26 24 22 17 18 18 22 22 14 17 14 17 19 16 23 29 27 24 23 28 28 25 24
46 44 42 40 38 38 36 34 32 30 29 27 25 25 25 19 21 22 21 21 23 23 26 23 20 17 15 17 22 22 18 22 11 14 19 20 21 28 21 19 19 24 25 24 22
48 48 45 44 41 39 39 37 35 34 32 29 28 26 26 19 18 23 21 22 21 20 22 22 20 18 17 15 21 24 19 23 12 12 19 18 16 17 17 18 20 22 23 21 17
50 49 47 47 44 43 43 40 38 37 34 31 30 28 28 23 19 26 22 22 23 19 21 22 19 17 15 15 18 20 20 22 14 13 15 13 9 9 14 15 16 19 19 22 19
53 50 48 47 46 44 43 41 40 40 39 36 34 31 30 25 24 28 21 22 23 21 18 26 19 18 14 17 19 21 22 21 16 6 12 11 7 12 21 19 18 15 20 24 23
55 53 52 50 48 46 44 43 41 42 41 39 38 35 32 26 30 28 23 24 23 23 19 23 26 18 13 14 17 21 20 16 12 7 11 12 11 14 11 12 17 20 21 22 26
55 57 53 52 50 49 44 42 41 43 42 42 40 37 34 23 34 29 26 24 25 23 22 21 29 20 16 13 16 19 17 13 9 11 10 10 14 9 9 11 15 20 22 20 21
48 43 54 58 52 50 48 45 42 45 44 43 41 40 35 29 34 34 29 23 26 25 22 23 26 23 19 13 16 16 14 12 15 5 11 13 13 8 5 4 14 18 20 21 17
46 46 45 44 55 56 52 47 47 48 45 47 44 43 36 31 36 33 30 24 28 27 25 23 25 23 24 16 15 14 13 10 15 12 9 5 12 8 7 5 11 17 13 17 21
46 45 44 46 46 44 45 42 47 48 52 53 51 46 43 34 32 33 33 31 28 28 30 21 26 26 22 18 15 15 13 15 17 19 5 13 11 11 5 3 10 19 14 17 25
48 48 47 46 47 46 45 40 43 44 44 40 44 44 39 38 34 36 34 32 30 30 28 25 28 20 23 21 19 14 15 16 15 19 6 12 14 7 3 1 9 14 14 14 18
47 47 46 46 46 45 44 46 45 46 44 41 40 41 39 42 42 36 37 36 33 32 32 31 22 17 30 26 19 16 17 18 15 16 12 12 14 10 5 4 5 8 13 10 15
49 48 46 45 47 45 44 47 46 46 49 39 41 40 37 42 42 37 42 37 36 36 36 31 17 25 29 30 20 17 17 16 15 17 14 12 11 13 7 1 2 4 8 7 12
52 51 50 47 47 48 46 45 46 47 45 46 38 42 41 41 44 41 41 38 38 38 36 35 24 24 29 32 26 18 18 15 18 16 14 16 11 13 8 4 4 4 7 4 7
56 55 53 49 50 49 49 48 46 42 47 44 44 41 43 42 43 41 39 44 41 38 38 32 24 27 30 24 31 21 18 19 19 21 15 15 17 14 12 6 5 2 3 3 2
60 57 55 53 52 51 51 50 48 46 45 46 46 44 43 40 37 41 41 42 40 42 43 40 32 35 31 28 30 27 19 23 21 21 20 17 22 14 15 8 6 7 2 2 5
58 59 57 54 55 52 52 52 51 50 42 40 42 44 46 43 38 39 41 41 42 42 42 42 40 32 35 35 32 30 26 25 26 24 21 20 23 10 17 15 10 8 3 4 5
56 56 55 54 58 55 56 57 56 46 43 41 39 52 53 50 45 40 41 42 44 46 47 43 41 36 32 31 34 32 28 26 27 24 25 25 23 21 21 20 14 13 9 9 4
55 54 51 52 57 55 57 59 52 46 47 46 47 55 50 52 53 48 46 44 44 43 43 44 46 34 33 30 35 33 33 20 25 29 30 27 20 21 26 19 16 20 9 10 7
53 52 47 52 54 54 56 52 48 45 46 48 51 53 42 46 54 55 49 47 44 43 41 41 41 32 34 34 36 39 29 28 30 34 34 28 25 19 21 17 15 19 20 16 16
49 47 42 50 52 52 48 43 39 38 39 45 49 54 53 47 49 50 48 48 45 38 39 36 39 35 36 43 42 41 38 36 30 36 33 29 29 21 20 20 16 21 22 21 16
45 42 39 43 44 40 35 29 24 24 26 38 46 52 50 50 50 48 42 47 43 42 43 38 37 40 41 42 42 42 38 33 34 36 33 29 28 30 27 24 24 26 24 20 22
37 33 33 36 35 26 23 25 24 26 26 27 25 25 35 60 57 52 48 41 45 46 42 40 44 43 40 43 49 49 47 41 31 31 40 32 24 25 25 20 21 18 22 25 29
28 31 32 31 27 25 23 23 24 26 27 32 27 18 22 43 65 56 53 37 43 41 51 41 46 46 41 41 43 49 51 46 34 37 40 39 31 24 33 24 28 23 29 30 27
33 33 28 27 21 20 23 21 22 23 26 30 27 27 20 35 63 56 51 48 29 36 35 45 50 46 41 37 35 50 52 44 36 35 37 31 33 24 33 30 28 27 27 32 32
35 32 28 27 27 27 26 23 25 23 23 19 25 24 21 29 55 64 52 41 34 32 34 35 42 45 46 39 38 54 49 49 45 38 36 34 33 28 25 32 35 33 36 37 37
40 37 37 35 34 33 28 27 27 25 24 20 21 26 32 27 55 64 66 56 47 22 31 43 39 36 43 35 43 50 51 53 49 46 37 36 34 27 37 28 25 31 34 34 33

GFSSW_500_spd_090.txt.gz
Wind_Speed
47 47 48 47 46 46 45 46 46 45 43 43 40 37 36 33 29 28 26 29 26 24 25 23 20 21 21 25 20 21 22 26 26 24 21 21 21 26 20 17 13 19 17 17 16
50 50 51 51 51 49 48 47 48 48 46 44 43 41 37 35 29 31 27 29 28 25 24 22 18 19 21 20 21 20 20 26 28 29 22 18 20 25 17 13 12 17 18 14 16
53 55 54 54 54 54 54 52 50 48 48 47 45 43 40 36 31 32 33 27 28 27 25 22 20 20 20 16 19 18 17 23 28 32 30 18 16 18 12 13 15 16 18 13 13
58 59 60 59 56 57 56 57 55 51 50 49 47 44 45 38 35 34 36 29 29 28 27 26 22 21 22 18 16 19 18 21 23 30 34 25 13 16 15 19 17 13 16 16 14
60 61 60 59 58 58 58 58 59 57 53 51 50 48 46 43 32 40 33 33 32 30 29 27 26 24 18 20 17 16 20 23 22 26 29 23 14 13 14 15 16 14 17 19 15
65 64 61 56 55 56 59 58 56 55 54 51 50 51 48 47 38 39 36 33 34 33 32 28 30 28 19 20 19 15 18 23 24 24 26 21 15 9 12 11 14 13 18 17 17
61 62 61 60 60 56 57 58 58 49 50 55 50 50 48 41 41 42 40 36 37 34 34 34 34 31 21 21 20 15 16 24 25 23 25 28 16 9 10 11 14 15 16 18 16
59 60 55 57 56 56 55 54 55 48 47 49 54 51 47 41 40 43 40 36 33 35 36 38 38 34 25 22 20 18 17 22 26 23 27 29 17 12 9 10 9 10 15 16 18
55 57 55 54 53 52 50 48 50 51 48 50 48 54 48 41 40 41 39 37 37 37 39 39 39 34 30 22 20 19 18 21 25 24 27 28 19 18 12 8 8 11 16 16 16
50 51 51 51 52 52 47 45 44 45 41 45 50 52 52 43 41 41 40 40 38 38 40 41 39 36 28 20 17 20 21 17 22 24 28 28 20 19 12 14 11 12 17 17 12
47 47 47 46 45 48 46 45 44 43 41 41 42 40 49 49 42 42 45 45 43 39 39 38 39 37 20 24 26 31 23 15 18 24 29 30 20 23 15 16 12 14 16 18 10
50 50 50 47 45 44 45 45 44 46 40 40 37 39 29 39 51 47 51 48 44 41 41 41 40 32 27 28 32 34 27 14 18 21 32 30 23 21 21 16 11 13 10 11 8
53 52 52 51 49 48 47 46 44 44 44 33 40 37 36 35 36 38 46 51 51 45 43 42 38 33 33 31 33 34 27 19 22 27 31 32 23 17 22 17 11 10 11 10 9
56 55 55 54 53 52 50 49 46 45 46 40 38 41 41 36 38 36 40 41 43 44 39 43 41 38 36 34 31 35 21 25 27 32 32 30 22 16 20 16 11 11 13 12 9
60 59 58 57 56 54 52 52 50 45 47 45 43 42 43 42 42 40 36 40 40 38 41 43 37 36 37 29 33 30 28 31 33 35 31 27 28 10 18 16 17 13 11 13 12
63 63 62 60 57 55 53 53 52 49 48 47 48 44 43 41 41 41 40 40 43 40 40 43 44 39 40 31 37 32 33 35 37 34 30 24 31 13 19 17 17 11 12 10 11
65 65 64 62 59 56 53 54 54 53 48 49 52 49 47 42 38 36 32 34 42 43 41 42 43 41 40 36 38 38 37 39 37 34 30 25 33 19 18 21 17 17 14 13 11
65 66 65 63 61 59 56 56 57 51 50 52 52 53 51 47 44 42 37 33 35 39 44 46 45 44 44 39 37 39 40 43 39 32 32 32 34 17 20 23 17 17 16 18 13
65 66 65 64 64 62 58 60 56 50 55 54 53 53 53 50 46 43 44 44 41 39 41 44 46 48 44 42 39 42 44 39 37 36 38 36 34 25 23 25 17 16 17 19 17
63 62 58 57 58 59 61 60 57 53 55 54 54 55 54 52 50 46 44 43 42 44 45 45 46 47 46 47 44 47 42 41 45 44 40 40 35 29 21 27 20 19 18 20 23
46 44 35 43 46 53 59 58 56 52 54 55 56 57 55 53 52 51 50 45 45 45 47 48 49 45 46 47 46 47 48 49 49 46 44 43 40 26 20 28 23 16 21 25 25
46 45 40 45 44 45 50 52 51 50 53 55 55 57 56 54 56 56 55 50 50 50 48 50 52 52 47 40 44 47 48 46 49 48 45 40 41 27 19 24 26 23 19 20 22
51 51 49 47 44 42 42 44 47 48 47 51 51 51 51 50 54 56 55 52 53 53 52 49 52 51 50 44 43 48 52 52 52 52 50 45 42 31 21 23 24 24 23 24 25
54 53 47 42 41 37 36 38 40 38 38 42 42 41 41 43 48 54 54 51 54 55 54 54 54 53 53 49 44 50 50 51 55 55 51 47 43 35 27 29 27 25 27 28 26
47 43 35 31 27 24 28 30 32 30 31 31 30 25 29 34 36 43 40 43 45 53 55 53 53 54 55 55 49 50 52 51 54 57 56 49 47 39 30 26 26 25 27 21 24
29 22 24 20 20 21 23 23 24 23 23 23 17 21 24 24 25 28 29 35 43 50 56 53 46 41 44 44 53 50 53 53 53 53 51 50 47 40 31 29 31 31 28 28 28
22 19 20 12 14 15 15 16 20 27 24 19 17 23 23 25 30 30 30 27 19 33 46 54 55 46 46 45 36 48 50 53 55 56 52 51 49 46 33 34 33 37 35 33 26

GFSSW_500_spd_093.txt.gz
Wind_Speed
41 43 42 42 44 44 44 44 45 44 45 44 43 40 38 37 37 37 35 36 36 30 30 29 26 26 22 19 20 20 17 20 21 21 25 27 27 24 19 19 19 19 16 18 20
44 45 45 45 45 47 48 48 48 47 47 48 46 43 43 39 37 39 39 35 35 35 30 32 26 26 25 19 18 17 14 21 20 23 24 25 26 24 18 15 16 15 15 18 18
45 44 46 49 49 50 52 52 52 52 52 48 49 49 45 43 41 39 41 37 35 35 32 31 29 27 28 23 19 15 13 19 23 25 25 28 24 20 19 20 18 16 15 14 16
47 49 50 49 50 53 55 55 56 57 55 52 50 52 50 45 46 42 41 42 37 35 36 34 32 29 29 27 22 16 16 15 17 26 25 28 28 21 18 25 21 14 10 13 18
48 49 52 54 54 55 56 57 59 58 56 51 49 54 52 49 47 48 42 42 42 37 37 37 34 33 30 27 24 19 16 14 14 23 23 25 25 20 19 22 24 9 9 13 17
49 53 55 54 57 58 59 60 61 61 54 51 47 49 53 48 48 48 48 43 42 40 37 39 36 36 33 27 27 22 17 16 17 20 20 22 21 20 23 22 25 8 11 15 18
51 52 54 55 57 58 59 58 59 58 54 51 49 48 51 47 49 46 48 47 44 44 40 37 38 38 35 29 27 24 21 18 22 17 20 20 18 18 20 22 26 10 8 12 15
53 56 56 58 59 57 56 55 56 53 51 51 49 48 46 46 49 46 47 47 46 43 42 41 40 41 37 32 27 25 24 19 25 19 19 17 13 22 20 19 19 13 9 11 14
56 58 58 57 58 56 52 51 51 50 50 50 49 47 45 47 47 45 44 47 46 45 44 45 43 41 39 34 30 23 24 23 27 22 21 18 14 21 20 18 19 16 17 13 14
57 56 54 53 51 49 48 47 46 46 48 49 48 45 43 44 49 49 42 46 45 44 43 43 44 41 40 35 24 22 26 30 24 25 23 22 14 18 20 16 20 19 22 20 15
56 53 51 50 48 45 44 44 44 42 41 45 47 44 41 39 38 47 48 46 46 45 44 44 45 42 34 31 31 33 32 31 20 25 25 26 11 15 20 17 20 23 20 24 15
57 54 53 51 49 47 47 46 44 45 39 38 41 46 43 44 38 31 42 49 48 45 45 45 44 42 35 34 31 34 34 29 22 24 29 29 17 17 22 20 19 24 21 23 13
59 56 55 54 53 52 49 48 47 48 46 36 40 42 44 42 38 31 37 43 53 52 46 47 45 43 40 36 35 36 36 30 26 29 33 32 21 16 21 19 18 23 19 18 12
60 58 57 56 55 54 52 51 49 48 49 46 43 44 44 42 42 37 37 36 44 56 53 52 47 45 41 39 35 38 31 35 30 32 32 33 22 9 19 19 18 22 16 17 12
62 59 58 57 56 54 54 53 51 48 51 50 45 46 44 44 41 40 35 37 35 35 41 49 50 47 42 35 34 35 34 38 34 35 34 31 28 6 13 17 19 21 16 13 12
62 60 59 59 58 57 56 56 54 50 53 51 47 45 45 44 41 38 35 32 39 38 34 35 37 42 39 37 36 36 36 38 38 39 36 27 28 8 10 17 19 22 21 15 14
63 63 61 61 62 59 58 58 56 54 52 51 49 48 48 46 42 38 32 30 33 39 37 37 36 35 36 38 38 36 37 40 42 42 34 30 28 17 11 16 14 19 21 17 15
66 64 63 63 63 60 59 59 59 56 55 52 51 49 49 47 44 43 37 31 31 30 40 38 39 38 36 38 35 34 37 41 43 40 35 38 34 23 14 12 18 21 24 20 15
63 62 61 60 58 56 56 60 59 58 58 53 50 53 51 50 48 43 40 39 39 33 33 37 38 42 40 40 40 38 41 37 42 42 42 41 38 34 15 14 16 20 22 21 16
58 56 52 54 53 55 56 57 59 59 58 54 52 53 52 51 51 47 44 42 39 39 41 40 40 37 38 40 42 45 42 42 46 45 43 41 40 38 20 16 19 19 22 22 22
54 51 48 50 48 47 46 43 42 44 50 53 52 53 56 53 50 49 47 45 44 43 43 44 46 41 40 37 32 41 45 47 48 45 43 43 44 41 20 21 18 17 23 23 23
49 48 45 45 44 44 39 36 36 35 41 48 51 54 57 55 49 51 51 47 46 46 45 45 47 47 43 38 34 35 42 46 51 50 49 47 43 40 23 20 18 14 22 17 23
47 46 45 45 44 42 40 40 41 36 37 44 48 51 53 51 47 46 49 49 49 47 46 47 48 48 45 42 40 39 38 45 48 51 50 50 48 45 34 21 20 17 21 19 19
46 47 45 46 44 44 43 40 39 39 38 40 41 44 45 41 38 42 44 46 49 50 50 50 49 50 48 43 39 43 43 41 46 51 50 49 48 46 41 25 26 20 20 24 24
46 46 46 49 42 38 32 29 28 29 30 34 31 29 32 32 33 35 38 40 44 45 50 51 51 52 51 48 47 41 43 43 48 45 51 48 49 47 45 29 29 27 26 26 27
42 40 35 30 26 22 20 17 16 17 21 23 21 21 22 23 25 27 33 37 38 45 48 51 52 53 53 50 50 49 45 44 46 50 51 48 50 50 48 32 31 32 28 30 28
24 18 12 12 13 12 7 11 12 18 16 17 19 19 17 18 22 25 26 26 27 30 34 37 41 47 50 49 46 50 42 41 46 49 48 49 46 49 47 40 36 35 34 34 32

GFSSW_500_spd_096.txt.gz
Wind_Speed
37 37 37 38 39 40 41 40 41 42 42 40 41 40 40 39 38 39 38 36 37 37 38 36 35 31 31 29 26 22 20 23 20 21 22 24 24 25 26 25 21 16 17 18 21
38 39 40 39 41 41 41 41 43 44 44 45 43 43 43 41 41 41 40 40 39 38 41 39 35 35 32 30 27 23 20 26 23 20 20 24 22 25 24 23 24 17 17 21 23
43 41 41 42 42 41 43 43 44 45 46 46 45 45 46 45 44 43 42 42 42 41 41 43 39 35 34 33 29 25 22 26 28 23 20 20 20 25 22 20 22 23 21 22 24
44 42 42 44 44 44 43 45 45 45 46 47 47 48 48 48 45 45 45 43 44 44 44 43 43 38 35 34 32 27 24 24 27 28 21 18 19 21 22 19 19 23 23 20 20
44 44 44 44 45 45 45 46 45 47 48 48 50 49 51 50 41 43 44 45 45 46 47 46 44 42 38 34 34 29 27 25 25 30 25 17 19 21 21 18 19 21 18 18 17
47 46 44 44 46 46 46 45 47 48 50 52 54 55 55 49 45 45 44 45 47 48 50 47 46 45 44 37 35 33 29 26 27 29 27 19 18 22 23 16 18 20 14 18 15
46 45 46 46 46 46 49 49 49 52 54 55 57 56 55 46 45 46 44 47 48 47 50 50 46 45 45 40 36 34 29 28 28 29 28 20 18 23 20 18 16 16 10 12 15
49 49 48 49 49 50 51 51 52 54 56 56 57 57 51 43 44 46 45 44 47 49 47 49 47 46 45 43 37 35 33 26 28 31 30 19 17 24 21 18 15 13 13 12 16
53 52 52 52 53 53 53 54 54 55 55 54 52 51 45 42 41 41 43 47 49 50 48 52 49 47 46 44 42 35 32 26 28 31 34 22 15 24 24 17 17 13 13 16 19
56 55 55 54 55 55 54 54 52 52 51 46 40 43 46 44 42 41 42 47 48 50 48 49 49 49 49 47 41 31 32 29 28 39 34 26 18 21 24 17 18 16 14 14 20
58 56 56 55 54 55 53 52 53 51 47 42 41 39 40 41 40 40 43 45 42 50 50 49 47 49 50 45 37 41 36 34 30 39 33 29 23 20 20 22 20 21 16 15 19
59 58 57 56 55 55 53 52 50 53 47 41 42 43 41 40 37 39 42 42 43 42 44 47 50 46 48 41 43 40 39 38 31 37 37 31 28 22 19 20 22 22 17 15 16
60 60 58 57 56 55 54 53 52 51 50 44 45 46 45 43 40 39 40 40 40 41 45 54 50 43 46 45 44 42 40 35 34 38 37 36 32 25 19 21 20 23 16 13 15
60 60 59 57 56 55 55 54 53 52 52 50 49 48 47 45 45 43 41 40 38 39 40 53 53 49 42 43 43 43 39 36 38 40 41 42 37 24 13 19 22 25 18 12 12
62 60 58 57 58 56 56 54 52 50 53 56 50 47 45 44 43 43 39 39 35 37 38 34 44 50 48 37 35 38 36 38 40 44 44 43 39 18 15 19 23 23 15 12 12
64 61 58 57 57 56 55 55 52 51 57 55 50 46 45 44 41 40 39 37 35 34 35 36 31 34 54 39 36 37 37 39 41 41 47 39 39 22 15 20 22 24 18 12 13
63 62 60 59 57 56 56 56 55 56 57 55 51 48 46 44 42 42 40 35 32 32 33 34 35 30 30 37 46 46 39 38 42 44 45 43 38 26 17 19 21 23 19 14 14
61 60 59 61 60 57 57 59 60 59 57 53 51 51 47 45 44 42 41 39 36 31 31 32 32 33 32 30 32 32 36 35 39 36 36 44 44 30 22 21 17 22 23 17 15
58 56 56 57 57 56 57 58 57 58 56 52 50 50 48 46 46 45 44 41 38 36 32 31 28 32 31 33 34 36 38 32 41 41 43 42 44 37 22 22 19 18 24 20 18
58 55 55 53 52 52 52 51 51 50 50 48 49 51 50 51 48 48 47 46 43 39 39 39 33 30 30 32 31 39 39 39 41 44 47 45 42 38 27 21 22 18 23 25 20
55 53 52 50 50 49 47 47 46 46 45 43 43 47 51 52 51 51 48 49 48 44 43 41 42 37 33 29 29 29 40 40 41 43 41 40 29 38 33 20 24 17 22 25 23
47 46 44 44 45 44 45 43 42 40 39 37 36 36 42 47 50 52 52 50 50 46 46 46 45 42 37 35 32 29 30 37 44 45 42 42 40 39 30 16 19 17 21 25 23
44 42 41 42 42 42 42 40 40 37 39 38 37 36 37 38 43 50 51 48 49 48 47 47 48 45 40 35 35 38 38 34 37 44 44 44 39 36 38 30 26 20 22 23 21
42 39 39 40 39 41 41 37 35 37 38 41 40 39 39 35 35 44 46 44 47 48 49 49 49 47 43 32 38 38 39 40 41 45 44 45 45 46 41 26 17 18 21 23 26
40 35 35 39 39 38 39 36 37 35 36 39 39 38 35 32 30 33 34 35 43 46 48 49 49 50 47 42 42 36 36 40 43 43 46 40 43 43 40 35 30 29 26 26 27
34 33 35 36 36 37 37 28 23 25 29 30 26 24 25 22 23 25 27 28 35 41 41 47 46 48 47 43 41 43 41 40 41 45 49 46 44 37 37 34 27 29 30 31 32
32 30 30 29 22 25 19 21 19 22 23 20 20 21 21 18 15 22 26 25 27 33 34 39 39 39 38 39 40 45 41 42 42 45 47 50 46 41 41 37 31 29 29 32 32

GFSSW_500_spd_099.txt.gz
Wind_Speed
41 41 39 39 39 39 39 39 39 39 40 40 40 41 40 41 40 38 38 37 36 36 37 36 36 36 38 38 34 32 27 26 23 22 26 30 31 30 27 25 23 20 19 22 25
43 42 40 40 40 40 41 40 39 41 41 41 42 42 41 41 41 40 38 38 39 39 38 38 38 39 40 39 38 34 31 25 26 26 27 28 34 29 29 26 22 23 21 22 22
42 42 41 41 43 42 42 41 42 42 43 43 42 43 43 40 42 42 36 37 38 40 41 40 41 40 41 43 41 35 33 29 28 32 31 28 31 29 29 23 21 20 20 22 25
45 45 44 44 44 43 42 42 43 42 42 41 43 45 46 43 43 39 38 39 38 39 41 43 44 44 42 43 42 43 32 32 31 34 33 32 27 26 28 25 21 21 20 21 19
47 46 46 45 45 44 45 44 43 43 44 43 44 44 43 45 42 46 42 42 40 39 41 45 47 47 46 43 42 45 33 34 34 34 35 36 29 27 24 27 22 21 20 20 18
48 48 46 45 45 45 45 45 45 45 43 41 42 45 45 48 42 43 46 47 43 39 40 45 48 50 50 48 43 41 40 36 35 35 35 36 34 33 25 23 23 21 19 17 18
52 50 48 48 48 46 44 45 45 44 43 44 45 46 47 46 47 44 44 43 39 39 41 44 49 52 51 51 46 44 44 38 35 34 36 37 34 31 28 26 22 20 19 16 14
55 53 50 50 48 47 46 46 47 47 47 47 47 49 49 49 49 50 48 40 35 37 42 47 48 50 53 51 50 42 43 40 31 35 35 37 31 29 31 27 21 21 18 17 15
58 56 52 52 51 50 49 49 50 50 49 49 49 50 52 51 49 47 44 41 38 38 40 46 49 50 52 52 51 44 43 38 32 36 36 39 33 27 33 27 22 23 16 19 16
59 58 55 55 54 53 52 53 52 52 51 49 49 49 50 50 51 46 40 38 40 41 42 43 47 51 55 55 56 44 40 36 35 32 38 37 36 28 31 28 25 22 19 18 18
60 58 57 57 57 56 55 55 56 54 50 50 49 49 43 49 45 40 40 37 38 41 41 41 44 49 52 54 52 46 40 31 34 32 40 43 37 33 30 26 28 24 24 18 17
60 60 60 59 58 58 58 56 56 57 55 48 47 50 52 49 44 41 42 38 39 40 41 44 42 41 49 44 47 43 42 44 43 40 43 41 43 30 33 25 24 27 27 19 17
61 61 61 62 60 58 58 57 57 55 56 52 48 49 50 47 44 43 41 41 41 42 41 41 39 36 45 51 49 42 43 44 46 42 42 46 43 34 31 30 23 28 27 19 16
64 63 62 61 62 59 59 56 56 54 54 55 57 53 49 47 46 44 43 43 44 45 41 43 35 37 37 49 38 39 38 42 44 43 47 40 43 38 28 30 24 27 27 18 15
65 65 63 60 60 58 58 55 53 48 50 56 60 53 49 46 46 45 43 42 41 43 43 40 41 36 40 34 45 37 31 40 44 42 45 44 45 38 28 25 25 26 27 17 15
69 68 65 63 60 58 55 53 51 48 52 55 53 50 47 47 46 44 42 40 39 40 40 37 41 33 36 36 36 45 34 32 39 41 47 43 44 38 26 24 23 27 28 17 16
71 70 67 62 59 55 54 51 50 51 52 51 52 50 48 47 45 42 42 41 39 41 36 36 35 33 34 39 32 41 40 35 34 38 45 36 38 43 29 26 24 26 28 19 17
69 67 63 60 57 52 51 51 53 51 50 56 52 50 48 50 47 45 43 42 43 42 35 36 31 33 31 36 32 26 41 40 29 23 27 23 35 33 30 29 26 27 25 22 17
70 66 63 60 56 53 52 53 48 49 52 55 52 49 47 49 47 48 46 42 38 42 36 39 33 34 28 30 35 31 34 36 43 38 34 25 24 23 33 26 28 22 22 20 19
70 70 66 62 57 54 54 51 48 51 49 48 46 47 45 44 40 44 44 44 49 46 42 39 37 35 30 25 28 32 26 27 30 44 38 31 22 18 12 26 27 21 23 23 21
64 66 62 58 55 55 52 48 49 49 47 46 45 45 46 46 50 48 48 46 51 52 46 41 40 33 35 26 18 25 33 33 28 28 29 25 27 21 22 28 27 23 23 23 22
60 58 55 52 50 48 45 45 48 46 44 44 45 43 44 43 45 47 48 52 55 54 52 47 45 41 37 29 32 28 24 25 33 29 29 29 28 15 25 27 26 33 25 24 22
47 47 47 46 44 43 43 44 43 42 42 42 41 39 39 39 41 39 39 44 52 56 49 52 46 43 41 34 31 32 29 26 27 32 38 28 25 30 19 19 20 22 19 24 26
36 41 43 41 39 40 41 40 40 39 38 38 38 37 39 40 39 36 35 37 46 54 56 54 46 44 31 23 31 36 35 36 36 32 27 30 31 28 17 23 22 22 26 22 23
34 35 33 37 36 35 36 37 35 35 34 37 37 37 38 40 38 41 39 38 40 46 54 54 51 47 45 40 33 31 35 37 38 40 38 35 30 31 34 36 25 22 23 29 29
33 34 36 34 31 33 32 31 33 32 35 36 36 38 38 39 38 36 32 33 34 38 44 47 40 44 47 44 46 48 41 36 36 39 40 42 41 38 35 35 28 27 28 30 29
38 34 32 26 29 27 28 31 32 31 30 30 26 19 19 21 20 20 25 25 27 28 29 34 33 38 38 38 37 46 42 39 38 38 38 40 38 40 41 37 28 29 33 33 30

GFSSW_500_spd_102.txt.gz
Wind_Speed
40 42 43 42 43 43 43 43 41 42 41 40 40 40 40 39 38 39 37 33 33 33 29 28 32 33 34 34 35 35 35 32 26 26 21 27 33 33 28 31 29 30 34 30 33
41 42 43 44 44 44 44 43 42 41 42 42 41 41 40 38 38 38 38 36 34 32 29 30 31 33 34 36 38 39 38 30 27 30 31 37 36 33 35 32 30 32 31 33 35
39 41 41 42 43 44 43 42 43 43 43 42 42 40 40 41 40 38 37 37 37 33 33 33 32 34 38 38 41 41 41 32 31 34 39 37 36 39 35 31 33 31 30 30 33
44 44 44 44 45 46 46 46 45 43 42 42 41 41 41 40 41 41 36 37 36 39 36 34 35 37 38 40 41 44 45 40 33 35 39 39 36 40 37 30 32 31 28 30 29
50 48 47 47 47 48 49 48 48 46 44 44 44 42 41 41 41 42 40 39 38 39 38 36 36 37 39 41 43 46 47 47 38 38 40 39 37 40 38 34 33 30 28 29 28
53 51 49 47 46 48 48 48 48 47 47 46 46 45 43 42 42 42 40 40 40 40 39 37 34 38 44 43 45 45 49 50 46 42 38 41 37 41 35 36 36 32 30 29 26
54 53 49 48 48 47 46 48 49 48 47 46 46 45 44 41 42 40 41 41 40 39 36 36 39 42 40 45 45 49 52 52 49 40 37 41 42 39 36 36 37 33 32 29 25
57 55 55 55 53 51 50 49 48 47 47 47 46 47 45 43 42 43 43 43 41 39 39 35 38 39 42 45 50 51 52 55 46 38 38 41 44 35 33 35 38 30 30 29 23
59 59 58 54 55 54 51 51 50 49 49 47 48 47 48 45 43 43 44 44 42 40 39 37 38 41 44 48 49 48 51 53 49 36 36 34 42 37 32 34 39 28 28 26 30
60 58 57 57 55 55 55 54 53 53 50 50 51 49 49 48 46 43 43 41 39 40 36 35 37 40 46 46 45 45 49 53 52 39 33 27 40 42 35 33 37 34 27 23 25
58 58 58 60 59 57 55 55 56 55 51 51 52 52 47 51 48 42 43 44 36 40 32 32 38 40 42 45 45 43 47 51 46 36 27 29 38 42 37 34 33 30 30 28 27
61 60 60 61 60 58 58 55 55 58 57 52 50 55 51 48 48 45 43 43 40 38 38 37 44 39 40 43 44 44 47 44 45 41 35 24 28 45 46 37 34 27 30 27 25
62 60 57 58 58 59 59 58 56 56 60 56 53 53 53 50 48 44 42 41 39 41 38 40 40 43 44 46 42 42 38 44 43 48 46 37 45 44 42 37 34 29 28 29 24
61 59 55 56 59 58 61 55 57 56 60 60 62 57 50 47 48 45 43 41 41 40 40 43 41 45 45 45 47 40 33 33 45 41 50 40 48 45 42 33 32 33 25 30 24
64 60 59 59 60 58 60 55 54 54 57 56 65 62 56 48 45 44 41 40 39 41 43 41 43 45 48 42 40 42 37 33 40 41 46 46 49 42 36 35 32 28 20 26 24
67 65 64 64 64 63 59 57 54 51 60 50 55 57 58 52 43 40 43 39 40 42 43 42 42 45 48 41 36 37 37 32 37 42 49 44 46 46 42 34 26 20 21 26 23
74 71 70 68 64 64 60 56 54 58 51 44 42 55 55 44 44 41 40 44 42 42 40 40 41 43 40 42 34 36 39 36 36 43 46 36 41 43 37 31 26 18 26 27 22
78 78 74 72 66 66 59 55 60 63 47 40 44 48 49 41 42 42 44 42 41 40 41 42 38 24 34 38 32 33 40 38 35 41 30 28 32 32 22 24 29 29 20 26 21
64 65 67 63 63 60 60 60 64 47 37 43 35 48 45 38 43 41 45 43 39 37 40 41 35 26 34 36 30 29 38 30 28 30 31 25 27 19 19 23 29 30 30 21 24
50 52 52 54 55 55 56 60 53 40 46 48 45 47 44 39 37 34 40 39 27 41 42 38 37 32 27 34 29 26 30 28 26 32 38 27 26 20 24 26 24 24 23 22 24
48 49 47 49 51 55 58 51 43 42 50 49 44 45 42 40 39 33 32 29 32 39 48 50 50 44 38 26 26 22 26 33 27 25 34 29 35 23 17 15 19 24 25 19 24
43 45 45 38 40 49 49 42 42 46 49 47 43 43 42 42 43 44 43 40 38 43 48 49 48 49 37 27 22 26 24 29 27 31 30 26 35 17 20 28 28 30 20 22 25
48 45 40 26 32 33 36 39 41 44 46 45 43 42 41 41 41 42 42 44 46 48 50 49 45 45 43 43 27 30 27 22 20 18 37 28 29 34 22 19 17 33 34 31 33
46 42 23 30 32 30 17 32 38 42 43 43 40 39 37 38 39 40 40 40 40 43 46 47 45 44 31 29 38 36 34 33 30 29 24 34 28 31 13 25 15 26 33 34 20
38 24 13 20 26 27 29 23 21 23 36 31 34 34 35 36 37 39 37 37 38 42 40 38 42 45 50 36 35 36 40 39 41 38 18 20 34 30 25 25 25 33 34 29 27
26 22 28 19 17 21 28 30 30 23 23 23 27 29 33 35 37 36 37 37 37 37 37 39 41 41 49 47 46 43 32 44 45 44 42 39 35 30 23 37 26 20 21 23 24
28 24 27 26 26 23 16 17 25 25 25 27 26 26 21 28 34 35 36 37 33 27 25 25 23 30 37 35 42 53 42 35 43 35 35 39 36 36 36 35 34 29 35 34 28

GFSSW_500_spd_105.txt.gz
Wind_Speed
38 39 39 39 38 39 41 42 42 41 41 41 41 41 39 37 38 40 38 35 34 34 34 29 27 27 24 27 26 28 26 27 24 27 23 30 22 35 39 34 32 29 34 36 35
40 41 40 40 40 40 41 41 41 41 41 41 40 41 41 40 39 40 39 34 33 33 33 32 30 28 27 27 29 30 29 29 31 31 30 35 34 35 39 38 36 37 36 35 34
42 42 41 40 40 40 41 41 41 42 42 42 41 41 43 42 41 39 37 38 36 33 34 33 30 30 29 30 31 30 29 33 33 35 34 35 39 39 34 37 32 35 38 39 37
47 47 46 45 45 44 45 44 44 43 43 44 44 44 43 41 39 40 35 36 35 35 35 32 32 30 30 31 31 32 32 34 35 38 40 39 40 42 38 36 34 30 34 35 41
56 53 53 50 51 52 50 48 47 46 46 45 44 44 43 41 42 43 36 39 37 35 34 33 31 31 32 33 32 34 34 36 37 41 44 44 44 43 40 37 36 33 31 33 38
58 58 54 54 53 53 51 50 47 45 45 46 45 45 44 42 42 42 42 41 38 35 35 33 32 34 35 33 35 36 38 41 42 44 48 50 44 45 39 35 37 35 31 34 35
57 55 56 55 54 54 54 52 49 45 45 45 46 46 45 43 42 42 41 40 38 37 35 36 37 36 33 36 36 40 41 41 41 44 49 44 46 41 34 35 38 37 36 34 34
55 54 55 57 57 56 54 53 53 53 53 47 46 45 45 44 43 44 42 41 39 37 37 37 36 37 37 37 40 43 45 37 35 42 45 41 47 37 34 35 34 37 37 29 31
57 56 53 53 53 53 53 53 51 49 48 49 48 47 44 44 42 43 42 40 38 38 39 34 37 37 39 38 38 40 35 40 35 43 47 41 48 42 42 29 33 34 38 26 29
60 56 53 54 53 53 54 52 51 52 49 49 51 50 49 45 44 41 40 39 39 40 36 35 41 43 42 34 37 34 40 39 42 43 50 44 44 47 36 38 28 34 37 29 29
60 56 54 53 52 51 52 53 54 53 51 50 49 50 50 47 45 40 40 39 39 41 36 36 42 42 32 36 36 38 41 44 43 45 48 41 45 40 40 33 23 27 37 33 29
59 56 54 53 54 54 56 58 56 58 54 52 47 49 45 49 49 38 41 42 40 39 41 42 45 31 36 38 39 40 43 44 44 47 46 43 40 39 43 38 30 31 37 30 25
58 56 54 52 54 56 59 58 56 60 60 48 48 47 48 50 46 37 43 40 40 43 39 42 42 38 38 38 40 40 46 46 46 47 46 39 42 37 43 44 41 33 35 30 26
56 54 52 51 53 56 57 55 56 58 60 55 52 48 48 46 47 43 41 39 40 40 38 48 39 37 36 39 42 44 45 46 46 45 46 36 43 40 44 41 49 24 24 28 29
58 58 55 53 53 54 58 52 53 55 58 53 56 52 49 44 44 38 39 40 38 36 39 43 38 37 39 39 40 44 46 49 49 43 39 36 39 32 47 42 33 31 31 28 29
61 61 60 59 60 60 59 59 57 55 60 48 56 56 55 48 46 42 40 38 36 36 38 41 33 37 37 37 40 45 46 41 42 39 43 33 34 39 47 45 41 31 22 22 24
58 59 58 58 56 63 62 60 58 63 55 49 40 50 53 55 48 34 40 39 33 36 37 34 34 35 39 40 40 44 42 39 45 42 39 30 33 37 37 43 34 23 19 24 26
54 55 54 53 48 54 56 54 62 66 58 36 30 30 42 57 44 35 27 38 35 36 37 37 39 34 35 40 38 42 37 40 40 35 35 35 30 25 15 26 23 22 26 24 24
50 47 46 44 45 45 49 54 58 51 42 38 37 45 39 50 47 35 34 35 35 35 37 38 42 29 35 37 35 31 32 26 37 36 38 37 26 14 24 25 23 27 26 26 31
44 39 33 40 41 43 45 51 50 43 34 43 45 43 39 38 42 40 37 34 34 38 41 43 45 35 32 33 34 33 24 29 31 34 33 33 18 19 25 25 36 34 35 24 33
38 34 31 37 37 41 43 42 41 37 38 45 47 47 48 38 43 42 38 31 24 39 41 39 43 37 36 34 18 23 29 25 30 33 29 25 26 28 26 34 40 38 43 36 33
40 32 35 39 41 38 44 30 30 35 42 49 50 48 46 53 51 43 37 32 33 37 36 43 42 36 40 33 31 33 23 28 26 31 27 29 23 30 22 13 20 28 39 33 31
41 36 38 39 40 40 26 25 25 30 37 43 47 45 42 45 47 44 43 45 42 45 46 46 44 41 39 38 35 40 44 35 34 31 31 28 19 28 33 20 27 33 36 34 33
40 38 39 39 37 32 29 22 8 17 30 36 41 42 40 41 43 42 44 44 49 53 50 45 45 43 40 33 36 46 52 36 22 32 32 31 25 28 32 31 25 34 37 26 28
42 41 35 30 20 23 33 22 22 15 16 26 30 33 31 32 35 37 37 38 39 38 40 41 44 41 38 37 34 45 52 57 31 28 35 23 31 32 16 30 21 32 51 23 27
38 28 22 15 16 10 16 28 24 15 8 21 18 17 23 26 28 30 33 34 36 37 40 41 41 39 39 32 32 44 40 52 41 37 40 41 15 38 28 31 19 20 23 29 36
21 20 20 17 13 16 15 17 23 20 10 24 10 17 17 14 15 21 25 29 31 33 32 31 25 22 26 26 33 47 42 40 49 47 45 39 34 30 28 28 33 32 21 32 38

GFSSW_500_spd_108.txt.gz
Wind_Speed
42 42 42 40 38 36 36 37 38 38 38 39 39 39 39 38 38 38 36 36 37 36 35 36 35 34 32 28 27 24 20 17 17 23 21 28 30 33 38 41 39 33 26 30 35
42 41 41 40 41 40 40 39 39 39 40 39 39 40 38 36 36 37 36 38 37 38 36 35 35 35 33 30 30 27 24 18 23 26 25 29 29 33 37 42 42 34 33 33 36
46 43 43 43 44 44 43 41 40 40 39 38 37 38 39 38 37 38 39 40 38 37 37 37 38 35 32 31 30 29 25 19 21 24 26 29 32 34 36 42 41 40 35 36 37
53 54 52 52 52 50 49 48 46 43 42 42 41 41 39 40 39 40 40 38 38 38 36 37 38 36 34 33 29 30 24 22 22 26 29 29 31 36 39 41 43 35 39 39 38
53 54 55 55 56 55 54 54 53 51 50 48 45 43 44 43 41 41 39 38 40 38 38 37 37 37 35 33 29 28 25 25 24 28 29 30 32 37 39 42 42 38 39 39 39
57 57 58 58 57 56 57 55 55 55 53 50 48 45 43 41 41 40 40 39 41 40 39 38 37 39 38 32 31 29 28 28 27 29 32 32 32 38 37 38 35 43 40 37 39
57 58 59 59 58 58 57 56 55 55 52 51 50 50 46 41 42 40 42 42 42 41 40 39 38 37 36 36 34 32 31 27 29 31 34 36 31 35 38 41 42 47 42 37 36
59 60 58 58 60 59 56 54 56 57 58 55 50 51 47 47 45 43 43 41 43 42 40 40 39 38 36 36 34 34 31 31 29 34 36 41 34 36 38 38 39 43 41 42 38
61 63 61 60 59 59 57 55 54 52 50 50 50 49 45 45 45 45 43 42 42 43 40 39 42 41 38 35 34 32 33 36 32 36 39 41 39 38 38 39 40 42 43 41 36
58 57 57 58 58 59 57 56 51 50 48 48 48 44 43 43 42 42 45 45 45 44 41 37 39 40 38 29 33 33 38 37 36 34 39 37 43 41 40 38 42 38 45 46 39
57 58 56 58 54 54 53 52 53 50 46 44 41 40 40 43 42 43 44 43 41 39 35 36 40 38 26 31 36 38 37 38 37 34 41 42 44 40 42 39 41 40 44 44 45
57 59 54 54 55 53 51 49 51 51 43 42 40 41 41 47 42 38 41 39 38 36 36 39 40 29 32 36 36 36 38 37 37 37 43 44 45 42 42 35 41 40 42 41 41
53 54 53 53 54 55 53 53 52 50 49 38 44 42 39 43 43 34 40 40 39 38 37 37 38 31 35 34 37 36 38 35 40 40 41 45 45 42 37 35 40 38 38 37 40
49 51 51 46 50 50 51 49 50 49 52 48 43 41 42 43 42 38 40 39 38 37 34 41 38 32 33 36 36 38 34 39 40 41 44 42 52 41 35 34 37 35 37 37 36
42 41 43 45 47 52 52 49 50 50 49 43 41 36 33 34 35 36 35 36 36 33 37 39 35 32 35 34 36 40 36 37 39 42 44 44 53 35 35 29 32 37 41 35 35
44 45 45 45 47 46 47 49 49 50 55 44 43 42 45 42 41 42 41 38 38 40 42 39 32 34 32 33 36 36 39 41 42 44 48 41 45 39 29 28 26 42 39 35 34
44 45 46 46 48 47 46 46 47 50 44 36 43 47 49 46 40 37 33 37 37 36 37 35 36 35 37 39 37 39 41 43 45 46 48 41 42 37 28 27 29 42 40 38 33
50 51 50 47 48 47 46 44 48 49 44 36 42 34 38 37 35 27 31 35 34 36 38 40 39 34 38 44 40 41 42 44 45 46 43 41 47 30 26 29 29 34 35 28 34
52 54 51 48 45 40 41 44 41 37 38 44 41 40 34 35 37 29 35 35 31 32 38 41 40 35 43 42 42 40 40 40 37 36 39 41 35 29 27 30 30 29 41 38 34
53 54 45 45 41 38 37 36 33 31 33 40 42 42 46 40 42 39 33 38 39 39 38 44 42 38 41 39 34 39 38 40 39 39 41 35 24 28 25 28 26 29 40 42 39
55 44 39 38 36 35 31 27 24 27 34 40 45 44 44 51 51 48 42 46 42 42 48 48 44 41 39 37 35 32 34 43 44 39 37 33 29 24 22 29 38 28 45 41 36
44 37 39 39 37 35 30 31 31 29 31 41 48 46 48 46 48 54 54 53 52 49 49 48 45 40 35 32 38 37 41 38 37 35 36 34 28 23 28 38 35 23 44 40 35
39 39 40 37 34 33 33 32 32 28 28 31 42 42 49 49 46 46 50 46 46 50 55 53 51 44 35 30 34 42 44 41 31 30 29 36 35 26 28 28 28 8 38 47 28
36 32 29 32 32 32 32 31 27 24 17 19 23 34 36 44 48 47 43 45 44 40 39 42 43 41 37 36 39 44 42 45 45 37 36 38 32 29 28 31 33 20 39 48 48
33 30 30 33 32 30 28 25 24 21 20 17 17 31 31 32 36 41 46 50 52 53 52 49 48 45 43 43 40 38 38 38 50 46 46 26 34 32 31 33 26 25 23 49 48
33 31 33 28 23 22 17 14 20 25 20 18 11 19 22 23 25 27 31 36 40 38 38 41 45 51 44 42 39 40 38 40 49 53 48 41 24 34 24 34 20 16 20 38 29
30 30 24 14 18 18 15 3 12 22 17 12 3 16 19 12 12 16 21 24 27 32 31 34 37 38 37 34 36 38 30 37 44 44 44 51 47 26 22 25 29 12 15 15 41

GFSSW_500_spd_111.txt.gz
Wind_Speed
40 40 41 41 39 39 39 39 39 38 36 37 37 36 37 36 37 39 37 36 39 38 37 38 39 38 37 38 36 36 32 28 19 23 22 25 24 23 25 22 24 27 29 29 31
45 45 45 43 44 44 41 39 39 40 40 39 39 39 40 37 37 38 40 37 37 39 38 39 41 42 41 37 37 38 35 30 25 28 26 28 22 24 28 28 27 30 30 31 33
47 48 48 48 48 47 45 44 42 42 42 42 42 41 40 38 37 38 40 39 37 38 40 40 41 41 40 38 39 37 36 32 30 27 24 25 24 29 27 26 31 34 32 37 38
50 51 49 48 50 51 52 52 53 52 50 49 46 45 43 41 41 39 40 40 40 39 39 40 41 41 40 39 39 39 37 34 30 28 26 24 29 28 26 25 30 34 36 37 39
53 55 57 54 53 52 50 51 54 55 55 54 52 49 48 48 44 44 40 41 41 41 42 41 41 40 40 40 40 37 35 32 31 30 27 27 28 25 26 28 29 33 38 40 39
54 55 57 59 59 59 58 56 56 56 56 56 54 53 52 49 49 49 46 41 41 42 42 41 40 42 42 41 39 36 37 34 33 31 29 32 27 30 26 28 31 32 40 43 44
56 56 57 58 58 57 58 58 59 58 56 56 55 54 53 44 51 44 43 45 43 43 42 40 41 43 42 41 40 40 38 37 34 31 31 36 30 29 29 30 29 32 37 39 44
55 55 58 59 59 57 58 61 61 60 58 56 56 54 51 51 52 47 49 45 45 43 42 44 44 45 44 42 41 40 40 35 33 34 34 39 28 27 29 31 29 32 35 38 39
56 58 57 59 60 61 61 61 62 61 59 56 56 54 51 51 51 53 48 44 45 46 43 47 46 43 43 43 41 43 37 34 38 37 38 37 31 29 31 30 29 32 36 41 41
55 58 58 59 58 58 58 57 57 59 59 57 54 51 48 48 46 45 47 46 42 45 48 45 45 42 42 39 38 34 39 43 39 37 35 37 34 31 31 31 32 37 38 39 40
56 57 59 59 59 59 55 54 54 54 54 53 51 48 47 48 47 45 46 47 46 44 43 46 47 48 39 36 38 43 42 41 38 34 40 34 37 32 33 37 37 39 39 35 36
48 48 50 52 53 55 54 51 50 49 47 50 48 45 41 49 43 38 43 42 44 44 44 47 48 42 40 41 40 42 43 38 35 33 41 38 37 32 36 37 40 39 38 34 33
47 46 47 48 48 48 47 49 50 50 44 37 46 45 43 47 41 33 42 42 40 40 39 42 40 41 43 40 44 43 39 37 36 38 41 40 40 34 35 37 38 36 41 33 34
43 41 37 38 42 41 43 40 41 47 45 40 46 42 43 43 41 40 40 42 41 40 42 45 44 44 42 42 45 40 39 38 39 42 42 40 43 33 37 34 37 36 43 34 37
34 34 36 36 38 36 38 39 37 36 41 37 43 42 38 43 42 40 41 46 44 40 41 42 43 42 44 42 44 42 42 41 43 43 44 38 49 31 36 33 36 37 39 33 37
34 36 37 40 38 36 38 38 39 40 44 36 40 43 41 38 42 44 38 36 38 38 42 46 46 43 44 42 43 41 44 44 44 43 47 36 46 36 35 31 36 34 32 31 35
37 39 40 41 42 40 39 39 40 44 41 40 41 42 44 40 41 44 45 43 38 39 41 40 40 40 42 45 46 45 45 47 47 46 45 37 45 38 35 30 35 33 30 31 33
38 40 42 44 46 47 48 47 44 42 37 39 42 38 40 43 44 44 45 47 44 42 43 45 44 44 45 46 47 47 47 49 49 47 43 40 45 38 35 37 34 32 30 30 35
41 44 46 48 51 54 51 47 40 36 40 41 39 43 44 47 43 38 41 45 48 48 52 53 53 53 51 50 49 48 49 47 48 47 48 44 41 37 37 34 33 31 31 32 36
43 48 50 53 52 48 44 37 32 28 33 40 43 42 49 43 39 36 39 44 49 52 54 55 53 55 52 49 47 47 47 45 43 44 46 41 38 37 31 30 35 34 35 32 35
45 50 53 49 42 37 35 32 31 30 33 34 34 36 38 51 49 44 41 42 49 51 55 55 52 51 51 47 46 46 47 47 46 38 43 43 38 36 36 34 34 34 37 31 39
48 49 44 41 39 38 36 37 36 32 34 35 34 34 33 38 48 57 52 48 43 43 44 53 54 48 46 43 41 45 44 45 37 38 41 44 34 35 34 33 31 35 35 29 40
46 42 40 37 35 34 31 31 34 34 34 35 35 34 34 34 44 52 54 52 44 39 36 39 40 40 42 43 43 36 39 40 46 48 34 51 43 35 35 35 36 33 32 30 40
40 35 34 35 35 33 32 33 31 31 32 32 29 27 26 31 35 46 51 48 38 40 40 37 36 47 49 46 42 43 40 37 41 46 51 46 39 34 31 33 38 32 16 19 24
36 36 38 38 35 33 35 31 27 28 29 23 21 21 19 17 26 26 42 50 51 44 38 41 52 50 47 45 46 42 39 38 40 43 47 43 38 29 23 28 27 27 11 12 25
38 38 38 33 32 32 27 19 12 11 15 16 15 15 18 19 29 27 26 36 50 50 50 48 42 44 41 42 45 46 45 42 44 45 46 49 46 39 25 22 21 24 15 17 4
38 38 36 30 29 22 17 9 5 9 14 17 19 15 15 24 20 14 18 23 30 39 45 44 44 46 49 49 50 49 36 38 39 42 38 45 42 41 35 35 14 15 21 13 10

GFSSW_500_spd_114.txt.gz
Wind_Speed
42 42 42 41 41 41 40 39 39 39 38 36 37 38 37 36 34 34 35 36 38 38 37 37 38 37 38 39 39 38 36 37 33 25 26 33 35 32 26 24 22 23 20 24 26
42 44 45 46 46 46 47 46 45 43 42 40 39 38 38 39 37 37 38 37 36 39 39 39 39 40 41 41 43 43 40 39 37 34 34 37 37 33 29 23 23 23 23 27 30
49 49 49 48 48 47 47 49 50 49 47 46 43 41 40 40 39 39 40 40 37 36 38 38 41 42 42 42 43 42 43 39 40 38 39 39 36 35 30 24 25 24 27 28 29
51 52 52 53 54 52 51 50 51 51 53 52 51 49 48 49 47 43 44 44 41 38 39 40 41 42 42 43 43 44 42 42 40 39 41 38 38 32 30 26 27 28 27 26 26
56 55 54 53 54 53 53 55 58 57 55 53 54 55 54 52 49 52 49 47 45 44 42 42 44 43 42 43 44 43 41 41 40 41 40 39 35 33 34 30 30 30 30 27 27
63 63 62 60 59 58 60 60 60 60 61 60 58 57 56 53 50 52 53 51 48 49 47 46 44 42 43 43 43 43 42 41 40 41 40 39 34 39 30 33 33 32 29 29 29
66 65 62 60 57 57 55 58 58 59 60 59 59 60 59 52 52 50 50 52 52 50 48 47 47 45 43 44 44 44 42 42 42 42 42 40 37 35 33 35 32 29 30 31 32
51 53 54 55 53 53 54 55 56 56 56 58 58 57 57 54 53 54 54 52 51 49 48 48 47 48 47 46 47 45 45 44 44 43 40 42 42 34 36 35 33 31 31 32 35
47 50 52 51 51 52 54 56 56 54 55 56 59 59 56 58 54 54 55 53 52 53 52 50 50 50 50 49 48 48 46 43 42 39 44 49 40 38 34 35 34 32 31 31 33
50 52 54 53 54 54 55 57 56 56 56 57 57 55 55 59 56 53 54 54 54 52 54 55 55 54 53 52 49 40 40 42 43 47 47 46 40 40 40 38 35 31 32 33 34
52 52 51 51 52 53 52 55 55 57 55 55 55 55 53 51 52 53 54 54 54 53 55 56 57 59 50 44 40 41 42 44 48 47 46 45 42 43 40 37 34 31 34 33 35
44 44 47 48 48 46 45 45 47 49 43 46 48 49 50 50 50 49 54 54 53 52 52 53 53 49 46 45 44 48 50 49 44 45 46 43 41 42 39 36 33 33 33 36 36
39 41 43 46 46 46 46 49 46 44 43 39 39 47 46 47 49 46 47 49 49 48 48 48 46 48 45 41 41 41 42 42 44 45 46 49 50 44 39 35 33 35 37 36 36
38 40 40 42 39 38 38 41 41 41 38 40 42 39 44 44 45 49 49 46 45 44 40 45 42 44 45 47 43 44 42 43 45 50 49 46 47 41 37 34 35 35 37 36 37
36 37 37 38 38 36 38 39 39 39 40 34 35 35 36 39 42 45 48 45 44 41 41 40 41 40 42 41 44 45 45 48 50 51 51 47 50 40 35 33 35 35 37 38 36
34 36 37 40 39 37 37 38 36 38 42 37 38 37 35 34 38 40 43 44 46 48 45 42 44 45 45 47 48 48 48 47 50 52 54 47 50 33 34 38 38 34 34 38 39
35 36 38 39 40 40 40 41 42 40 41 45 40 39 41 41 38 41 43 44 43 46 46 45 44 48 48 49 49 50 49 50 51 53 53 47 50 38 39 38 38 37 35 40 40
35 37 37 38 39 42 44 46 48 48 48 47 46 42 43 44 42 41 44 43 44 47 48 46 45 47 49 50 49 50 52 54 55 55 54 51 50 44 40 40 40 38 37 41 42
34 36 38 40 42 44 47 49 49 49 49 50 47 48 44 47 44 47 47 46 46 46 46 48 49 49 50 51 50 51 52 51 52 55 55 51 47 47 45 41 39 40 41 41 40
35 37 40 41 44 48 50 48 45 41 45 44 42 39 40 42 45 49 51 54 47 49 52 49 53 52 51 53 53 51 49 47 49 50 53 53 51 51 46 43 42 42 42 41 44
36 38 40 44 48 49 47 41 40 40 39 39 37 36 33 33 36 39 49 50 52 41 53 55 54 55 51 48 47 46 46 48 49 50 51 54 53 51 46 43 42 42 42 44 43
36 38 43 47 48 41 36 36 35 36 38 38 37 36 34 31 30 32 35 47 46 50 34 50 53 52 46 48 47 47 45 45 45 46 49 52 53 48 47 46 46 44 38 39 34
37 42 44 46 39 35 37 36 35 31 32 34 35 35 35 33 34 33 36 36 44 48 48 34 49 52 50 44 43 48 47 46 39 40 45 48 55 39 40 42 42 38 36 38 26
39 43 46 40 36 38 39 37 32 33 33 32 31 33 34 32 31 31 34 37 39 45 46 45 35 41 45 39 41 49 43 44 45 44 44 46 50 52 49 41 43 37 40 35 24
40 43 41 39 38 40 41 31 30 34 30 28 26 28 25 20 24 25 17 16 22 31 41 44 39 33 39 41 45 47 36 37 44 46 51 46 47 45 46 44 36 36 38 30 18
41 44 40 38 39 40 33 27 25 16 8 11 10 12 13 13 14 13 18 16 22 23 27 40 48 37 36 35 35 42 44 41 46 51 53 51 52 36 44 45 34 28 19 24 21
42 44 39 37 40 34 26 19 9 6 5 12 12 8 16 18 17 19 15 18 22 22 23 26 38 51 46 39 38 44 40 43 47 43 46 46 38 42 39 41 37 24 19 26 24

GFSSW_500_spd_117.txt.gz
Wind_Speed
38 40 41 41 41 41 41 42 42 42 41 41 39 38 38 37 37 38 37 35 36 36 37 38 38 38 39 39 38 38 39 36 31 26 22 29 36 38 40 36 32 28 25 24 25
42 41 43 45 45 44 45 45 45 45 45 44 44 44 43 41 40 39 39 37 37 38 39 39 40 40 39 39 40 40 39 39 37 33 31 36 39 41 42 38 34 31 26 26 27
43 43 44 45 47 48 49 50 52 52 49 47 46 47 47 47 45 43 42 39 39 37 39 40 39 40 41 40 40 40 40 41 42 40 40 38 40 42 44 37 38 35 31 29 29
48 49 50 51 53 54 53 52 53 52 53 53 52 49 49 51 52 50 48 46 44 44 40 41 40 40 40 41 41 41 41 42 42 42 42 40 41 43 42 38 40 37 33 33 33
55 57 58 59 60 61 61 60 59 59 55 57 56 56 55 54 53 54 53 53 52 49 47 46 45 43 43 42 41 40 40 42 42 43 43 42 40 41 40 39 41 39 38 35 34
57 59 64 66 67 65 65 63 62 60 61 63 62 62 63 59 56 56 55 54 51 52 52 51 49 49 49 45 43 41 42 43 43 42 41 41 41 45 39 40 44 44 40 35 34
61 64 64 65 61 60 57 55 54 53 52 55 57 59 59 56 54 52 53 55 54 52 49 50 50 51 53 52 51 47 45 43 43 42 41 40 41 40 40 42 43 43 39 38 34
63 57 57 54 49 48 49 50 51 49 52 52 53 53 52 53 54 54 53 52 54 54 51 50 50 51 52 51 52 51 50 47 42 42 42 42 40 41 43 44 41 40 40 35 31
53 53 49 47 48 50 50 51 52 52 52 51 51 52 53 56 53 51 56 54 52 53 52 52 53 53 53 55 54 53 51 46 44 43 44 44 45 45 44 44 42 41 39 35 34
45 47 47 47 49 50 53 52 50 50 49 50 51 52 55 55 55 55 53 52 53 54 55 54 54 56 58 58 57 49 47 46 49 46 47 48 50 47 45 44 43 44 39 35 36
41 43 45 47 49 49 47 47 45 44 45 45 47 46 48 52 56 53 53 53 52 53 56 56 57 57 57 55 52 54 53 53 56 52 48 45 45 49 49 45 44 44 40 37 37
43 45 46 47 45 42 43 43 45 44 38 42 46 47 45 44 44 49 51 53 53 53 56 58 56 56 57 56 53 55 53 54 50 44 45 47 50 48 44 46 45 42 39 37 39
39 38 40 42 42 42 41 43 43 42 41 44 40 40 41 44 46 44 47 49 51 53 56 59 55 55 58 58 56 56 53 51 50 48 45 48 50 45 43 44 41 40 38 37 39
35 37 40 41 40 41 40 41 41 40 40 41 42 39 34 34 39 45 45 45 47 48 49 53 56 57 54 49 48 46 42 44 41 42 48 49 55 53 48 44 43 39 37 40 44
35 36 37 39 39 40 40 42 42 42 41 42 40 39 39 37 37 38 42 42 44 47 49 49 48 50 49 46 45 51 43 42 46 49 49 46 48 49 46 45 42 39 41 43 45
33 35 38 39 40 40 41 41 40 40 44 44 45 44 40 42 42 43 39 43 44 43 42 43 46 48 45 43 41 41 45 45 45 43 50 49 48 52 51 43 40 40 42 45 43
33 36 38 39 39 41 40 39 40 40 43 45 45 44 45 42 40 43 42 42 44 44 42 40 42 45 47 44 41 43 44 44 46 48 50 46 47 49 49 46 43 40 44 41 40
34 36 37 37 37 37 39 40 42 44 45 47 48 47 47 45 44 42 43 44 46 48 42 37 37 43 47 46 46 44 43 46 46 45 48 53 54 51 48 46 45 44 44 41 41
34 34 35 36 36 38 40 39 43 47 49 50 49 48 45 41 43 41 43 44 46 47 43 40 38 39 40 43 46 47 51 45 45 47 47 49 50 51 49 46 46 46 44 43 40
33 34 32 35 37 38 39 43 47 46 43 44 43 42 39 33 31 34 36 40 45 48 47 44 40 31 33 32 27 38 42 40 45 48 50 53 52 52 50 48 47 47 46 45 42
31 32 33 34 37 38 41 45 40 36 39 41 39 38 35 36 31 29 26 29 40 43 49 47 45 38 35 30 32 32 35 40 44 44 47 50 51 52 52 51 49 49 50 48 44
31 33 33 36 38 40 43 38 35 36 42 42 38 36 33 33 31 28 28 26 28 34 40 45 47 43 36 44 42 37 31 30 32 39 48 48 52 52 51 50 50 51 51 48 45
32 33 34 37 39 41 42 35 36 39 41 37 35 35 34 31 31 26 26 29 27 27 33 43 45 43 30 34 40 40 46 48 43 37 42 46 52 53 52 51 50 51 50 48 44
33 34 36 38 40 42 38 35 38 41 35 33 31 33 32 28 27 25 23 25 28 27 27 27 38 41 37 30 33 40 35 35 40 40 40 46 51 48 48 50 52 52 54 49 38
33 34 37 39 43 43 36 37 38 35 31 30 23 22 20 16 12 15 16 9 10 10 14 21 31 35 35 38 33 39 42 41 43 41 42 42 51 55 50 48 49 50 54 56 40
33 34 37 41 44 40 39 37 36 29 23 12 9 9 7 5 11 9 5 5 9 11 16 18 22 32 37 35 36 34 33 32 36 36 42 44 52 43 48 51 46 48 53 53 43
33 35 38 42 43 38 36 37 29 19 7 2 5 9 6 8 13 13 13 14 15 16 20 18 18 22 32 39 36 46 30 30 32 33 33 45 49 48 51 53 57 55 44 39 33

GFSSW_500_spd_123.txt.gz
Wind_Speed
30 32 34 34 32 31 29 27 28 29 29 31 32 34 35 36 39 42 44 44 43 44 42 41 42 41 41 42 43 43 44 43 41 39 41 32 45 39 42 40 43 38 36 38 35
31 32 33 34 33 33 32 32 33 35 37 39 39 37 38 39 41 41 43 45 45 46 48 46 44 45 45 45 45 46 46 44 44 44 43 41 45 42 46 44 47 44 42 40 38
32 36 35 34 34 32 35 35 34 35 37 40 42 43 44 45 47 48 44 46 47 47 49 51 49 48 48 48 48 48 46 44 46 47 50 43 47 42 51 49 50 48 46 45 44
30 30 33 38 38 39 39 40 41 42 43 44 47 49 51 51 50 48 48 49 50 50 51 51 54 53 50 50 50 52 51 50 49 49 53 45 46 50 48 52 51 50 50 48 46
36 33 31 35 40 43 44 45 47 47 48 49 50 52 51 49 49 47 49 47 50 53 54 54 55 56 55 53 54 55 52 52 52 51 54 47 49 49 47 48 50 51 51 53 50
41 38 38 39 39 41 44 47 50 51 51 54 55 52 54 52 52 47 47 48 49 52 56 55 55 56 57 59 58 58 58 57 54 54 52 52 47 49 47 48 49 49 49 51 51
44 47 45 45 43 42 45 51 50 50 53 54 54 56 51 49 49 46 45 46 48 50 50 52 54 57 59 58 61 61 62 62 61 58 57 55 50 49 48 47 49 49 48 51 50
44 45 47 46 48 49 49 50 50 50 50 51 51 48 48 47 46 46 45 45 47 49 51 52 50 49 52 56 60 61 62 61 59 58 59 62 53 49 46 51 50 47 50 48 50
50 51 47 50 49 51 50 48 47 46 44 43 43 44 46 45 47 48 45 43 43 45 49 51 53 51 49 53 56 57 60 58 58 57 56 61 55 51 48 54 50 47 48 48 48
48 49 47 49 52 51 47 44 42 42 42 45 46 48 45 45 45 43 42 40 39 41 43 46 50 52 51 53 52 55 58 57 55 56 47 59 56 55 51 54 53 47 48 46 47
49 46 49 51 49 43 41 43 43 42 42 43 43 43 45 44 44 43 43 44 44 42 42 43 42 46 50 51 50 53 56 58 54 56 38 53 56 52 49 52 56 48 47 48 48
50 50 50 45 41 41 43 40 40 38 38 39 42 44 43 43 43 42 42 43 44 44 44 43 43 43 46 49 51 54 57 56 58 56 46 56 58 52 51 53 60 49 46 45 46
51 49 42 41 40 39 36 36 37 39 41 41 42 41 40 40 39 39 39 42 41 40 41 43 42 46 46 46 50 54 56 55 59 49 56 60 61 58 57 55 53 49 45 44 48
47 42 37 38 37 36 34 35 36 39 39 39 39 37 36 39 42 41 41 43 43 45 44 43 43 43 47 49 49 52 52 55 59 59 62 50 57 51 53 54 60 49 46 46 45
38 35 35 36 35 35 34 35 36 36 35 41 40 39 41 44 44 44 45 48 49 50 51 47 46 47 47 47 48 46 52 55 57 59 57 56 54 49 25 38 52 52 47 41 44
34 33 35 34 33 34 35 35 35 35 40 39 42 44 46 46 47 50 52 51 51 51 51 53 46 45 52 45 47 48 47 52 58 57 59 51 44 39 30 32 27 42 47 48 46
32 32 32 33 33 34 34 35 36 37 38 41 42 44 45 47 48 49 50 50 52 54 53 49 41 35 36 45 44 45 45 45 51 56 53 36 38 45 29 29 27 39 46 45 48
32 31 31 32 32 33 36 35 35 36 38 40 41 44 45 46 48 49 50 51 49 50 54 51 47 30 34 38 34 35 40 43 45 44 41 36 36 29 35 38 44 48 31 33 40
28 29 29 30 30 33 34 34 35 37 37 38 40 42 45 47 49 49 48 43 41 42 44 40 38 28 34 34 29 29 39 32 35 30 34 32 21 38 40 43 46 48 46 45 39
26 26 26 28 30 31 32 33 35 35 36 38 40 42 45 48 45 42 41 41 40 40 39 39 31 27 26 31 24 27 31 29 35 38 42 32 28 33 38 42 39 44 45 39 39
22 23 24 26 29 29 31 33 34 34 36 38 40 43 43 40 41 44 45 40 31 38 36 32 28 28 24 22 30 30 29 30 33 35 37 29 35 27 28 27 30 35 35 37 39
19 20 21 24 28 28 30 31 33 36 38 40 42 40 38 42 44 45 41 31 29 33 27 22 25 23 22 27 30 38 29 28 26 23 30 37 27 25 33 39 35 37 38 39 39
17 16 19 22 25 27 29 31 34 36 39 42 39 39 42 45 43 35 27 23 27 23 20 20 17 15 11 20 25 32 48 35 29 32 29 26 24 27 30 36 38 38 40 35 32
15 15 19 22 23 26 29 33 36 37 40 38 38 42 41 21 18 15 13 11 18 15 15 20 19 20 17 20 25 28 38 39 42 33 30 25 31 21 35 16 23 41 37 35 35
14 16 19 21 23 26 30 34 36 39 38 37 41 37 18 13 9 8 9 12 12 5 7 9 14 18 22 25 27 24 24 26 40 36 34 29 21 20 18 21 24 33 38 42 43
14 17 20 21 24 27 32 35 37 39 36 38 38 17 7 9 8 5 11 8 5 5 6 2 13 15 17 18 23 37 32 23 30 32 34 30 39 35 36 26 43 44 43 41 41
16 18 19 21 23 29 34 36 38 36 35 38 22 6 9 8 7 7 4 2 5 8 9 9 10 11 16 13 21 24 35 37 30 30 33 37 33 30 38 40 43 43 42 45 48

GFSSW_500_spd_126.txt.gz
Wind_Speed
34 35 35 34 35 35 36 36 35 34 32 33 33 33 33 34 34 36 37 38 39 41 42 42 43 42 45 42 42 43 45 45 42 40 36 34 33 45 49 40 39 47 43 37 44
35 34 33 33 33 34 35 36 36 34 33 35 35 36 38 38 39 39 38 38 41 42 44 46 46 46 46 46 45 47 49 45 43 42 43 39 31 47 49 48 41 50 50 41 45
36 35 33 35 38 37 36 36 36 36 37 37 36 38 40 40 41 43 43 46 48 48 48 48 49 50 50 48 48 48 51 48 48 45 46 47 47 39 53 50 49 47 54 51 46
37 37 33 31 30 28 28 32 36 39 40 39 40 42 42 43 46 43 44 44 44 45 49 51 53 53 53 52 51 53 52 53 51 50 50 52 52 54 54 49 49 52 54 55 56
40 39 43 40 37 32 29 26 30 37 41 43 44 44 45 43 45 46 48 48 48 47 47 49 53 55 55 56 55 57 56 55 55 56 52 54 56 52 49 53 49 51 53 54 55
38 45 43 41 42 40 38 35 34 34 33 39 43 42 41 46 47 47 49 51 51 50 44 45 50 54 58 58 58 56 58 59 60 59 59 58 54 56 47 47 50 50 53 52 52
41 42 41 37 38 42 42 40 39 38 39 41 43 42 44 44 45 49 48 47 48 48 45 45 46 49 51 54 55 57 60 59 61 60 61 61 61 57 51 48 49 50 51 52 49
40 38 38 38 41 42 43 41 39 40 42 44 44 45 45 44 45 46 47 47 46 46 47 46 47 49 50 51 52 52 57 61 59 61 60 61 63 59 58 54 52 51 51 53 52
41 43 42 44 47 47 46 45 46 47 48 47 44 45 45 43 44 45 46 44 46 47 46 46 46 47 50 51 51 52 57 56 53 57 58 54 62 54 52 51 54 54 53 53 50
49 49 47 46 41 43 42 47 51 49 46 44 42 43 43 44 43 43 43 45 45 44 42 40 42 45 49 52 52 48 54 53 55 52 50 52 43 46 46 46 43 50 55 56 52
51 50 49 52 50 54 52 51 48 45 43 44 44 44 42 41 40 40 40 42 42 43 43 43 43 43 45 48 44 45 50 52 51 53 45 43 58 53 44 32 40 45 55 52 52
47 45 48 51 53 49 49 48 45 43 43 40 40 39 39 40 41 41 40 42 43 44 44 42 43 42 42 43 45 47 48 48 50 53 54 51 57 52 53 55 46 46 40 54 49
48 47 49 51 48 48 47 43 43 43 40 38 38 39 39 39 40 39 40 41 42 42 41 42 42 39 36 41 45 45 47 48 47 45 47 55 60 59 53 52 52 53 51 47 41
50 54 51 49 48 46 42 42 40 39 36 38 38 37 35 38 39 39 41 40 41 41 42 43 41 42 44 44 39 48 41 39 43 48 52 47 58 56 51 46 47 50 45 48 36
47 51 50 50 46 41 39 38 37 36 31 38 36 36 35 36 40 40 43 44 46 47 48 44 46 47 47 46 44 49 42 40 45 50 51 52 53 48 47 47 46 42 44 43 44
43 43 43 44 38 36 36 37 36 32 34 32 34 36 38 41 44 45 46 46 50 51 51 51 51 50 48 44 42 47 49 47 51 50 54 43 42 43 40 35 36 26 36 39 50
38 39 39 37 35 35 35 34 30 31 29 33 36 38 41 43 44 45 45 46 48 51 49 52 52 51 43 37 37 29 41 41 37 50 55 40 40 37 33 25 30 36 32 38 45
36 36 37 36 33 33 32 31 27 29 31 34 38 41 43 45 46 46 45 47 46 50 52 52 51 42 37 37 45 39 39 39 37 40 40 32 40 38 28 29 39 29 40 44 39
38 36 38 34 32 33 29 27 28 31 32 35 37 39 39 43 47 48 50 50 52 52 51 51 49 47 40 38 38 26 38 37 39 38 33 34 35 30 31 34 34 42 45 49 35
37 37 31 27 25 26 26 25 26 29 33 35 37 39 41 42 45 47 48 49 48 50 50 49 49 44 39 39 30 41 35 29 32 34 34 26 29 22 23 30 37 46 52 54 42
33 32 25 22 22 20 21 22 26 28 31 33 35 38 40 42 46 47 48 48 47 37 40 44 40 38 31 31 33 26 22 40 36 30 33 27 22 25 24 33 31 46 51 53 49
26 23 19 18 17 18 19 22 25 28 30 32 34 37 40 43 45 46 49 49 41 38 37 38 33 25 18 13 25 28 17 26 33 22 35 34 27 27 28 32 36 39 33 40 42
19 20 18 16 16 16 18 20 24 27 30 34 36 39 43 44 47 44 31 22 18 13 17 18 11 14 8 2 19 30 30 30 24 35 18 26 28 33 30 36 31 40 40 39 38
19 16 14 14 13 15 18 20 24 26 30 33 37 40 42 45 37 17 16 16 12 16 18 15 16 18 15 12 16 19 27 32 32 31 30 23 31 18 36 36 44 36 26 45 42
16 14 13 11 12 15 18 21 24 28 31 34 37 40 43 33 15 15 13 13 14 15 4 4 6 9 13 19 18 20 18 15 22 21 33 30 33 11 20 37 29 8 26 32 33
15 13 12 11 14 15 18 21 25 30 32 34 36 40 38 14 12 11 14 16 8 12 3 7 13 14 16 18 18 29 30 25 22 22 32 37 38 20 4 17 10 16 30 29 24
14 12 12 12 14 16 17 21 25 29 32 33 35 38 21 10 8 7 5 2 6 10 8 8 8 12 13 15 13 11 11 17 27 22 24 27 26 30 24 21 24 22 27 30 32

GFSSW_500_spd_129.txt.gz
Wind_Speed
37 37 35 35 37 37 37 36 37 37 37 36 36 36 34 33 34 35 34 35 35 37 37 37 39 41 42 41 43 44 47 44 37 36 33 31 30 32 41 44 45 46 43 43 36
35 37 37 36 37 37 37 35 35 35 37 39 38 36 34 34 34 35 38 37 38 39 39 40 41 43 46 46 46 48 49 47 41 40 40 36 36 37 48 49 47 48 49 47 45
35 36 38 38 38 37 36 36 37 37 37 37 39 38 37 36 35 38 38 39 41 41 42 46 48 50 50 51 51 50 52 48 47 45 44 43 45 42 48 55 53 52 48 48 48
33 35 35 33 35 39 35 34 32 27 30 35 37 38 40 39 40 39 40 40 39 43 45 44 45 46 47 50 53 56 55 55 52 50 49 48 47 48 49 54 57 57 51 47 49
36 33 31 34 39 39 42 40 36 32 29 27 31 38 42 43 44 43 42 40 41 41 42 45 47 49 50 50 53 55 56 57 57 56 54 53 54 52 52 52 54 50 48 48 50
42 39 35 34 36 39 42 39 42 42 40 36 33 35 34 37 40 41 41 43 44 42 44 45 46 48 50 48 49 51 55 57 58 60 61 61 57 56 53 50 50 47 46 47 49
43 43 42 38 37 37 40 36 36 38 38 41 42 37 38 40 43 47 48 44 42 43 45 45 44 46 46 47 48 50 53 55 54 56 59 57 63 59 53 51 50 50 50 47 47
44 45 42 39 37 32 35 38 41 39 39 41 46 46 44 44 42 42 43 42 43 45 46 46 45 45 45 46 47 49 52 52 48 50 50 53 64 61 55 54 56 51 51 52 50
41 42 45 41 38 37 38 38 37 37 40 41 45 44 47 46 42 41 42 43 45 48 48 47 45 46 47 47 48 50 50 52 50 50 51 51 57 55 55 54 56 57 54 53 56
46 46 45 45 45 44 45 43 40 42 45 43 44 41 41 43 41 41 44 45 46 45 47 46 46 45 44 45 45 47 51 51 51 50 53 53 51 58 59 55 54 60 53 52 58
44 46 44 43 50 48 43 43 45 45 43 42 43 45 44 43 41 41 41 42 42 42 41 42 43 43 42 43 45 49 51 51 48 45 51 51 55 57 54 51 47 50 47 50 50
43 45 44 44 46 42 39 37 39 44 45 46 44 44 44 42 40 39 40 40 40 41 41 42 44 44 46 47 47 47 49 49 47 49 52 52 53 54 52 46 49 49 50 53 52
40 39 42 45 43 42 43 44 42 42 44 44 42 43 41 40 39 37 40 37 40 41 41 44 43 45 45 45 47 47 47 47 46 46 50 51 55 51 44 51 44 48 50 52 54
42 46 43 45 45 46 44 43 43 45 43 41 41 38 37 38 38 39 38 39 39 40 41 42 41 44 45 47 48 49 43 46 50 51 53 44 54 47 46 44 44 47 48 48 50
47 47 44 41 41 41 43 42 41 41 38 39 35 35 36 35 37 37 40 41 42 43 44 42 45 47 50 51 50 53 48 49 50 53 54 53 54 41 43 44 41 38 38 44 53
44 41 43 41 39 40 42 40 36 34 34 35 33 33 35 38 38 39 40 41 43 45 46 47 50 52 54 53 51 49 49 50 50 47 53 54 57 54 45 40 32 33 34 36 48
36 36 40 39 38 40 38 34 31 32 32 30 32 33 34 37 39 41 41 42 45 47 48 48 49 51 51 57 56 50 51 50 42 47 50 42 51 57 51 37 29 28 34 32 37
35 36 39 38 37 39 36 32 31 32 30 31 30 32 34 39 41 41 42 44 46 49 51 54 53 53 54 50 53 50 41 33 37 44 45 37 44 46 44 37 37 33 30 34 35
38 40 37 37 35 35 35 33 27 27 27 27 28 31 33 38 40 42 43 46 49 52 56 60 60 56 54 49 45 44 38 40 45 43 47 47 38 33 17 24 24 35 36 36 38
39 36 36 36 36 33 34 29 25 24 25 24 26 30 32 34 36 39 42 45 49 54 59 61 64 61 58 49 38 41 38 36 35 25 36 36 35 21 18 18 27 36 44 39 39
40 40 36 35 34 31 24 20 19 20 21 23 27 31 33 35 38 40 44 49 54 54 53 51 52 52 39 24 23 37 32 34 41 44 31 24 14 18 24 21 27 31 35 39 45
39 37 33 30 28 22 18 17 20 18 19 23 27 29 31 34 38 42 46 51 51 45 36 20 18 16 9 12 18 14 28 33 20 21 41 46 27 25 24 28 33 34 41 36 47
35 33 32 28 20 17 17 17 16 18 22 24 27 29 31 35 39 44 48 41 34 22 16 16 15 11 5 6 20 19 18 30 16 10 16 32 33 30 31 26 34 36 43 34 48
32 29 23 20 18 14 14 14 13 17 20 24 27 30 32 37 42 44 36 23 16 12 16 16 8 15 15 16 8 8 12 27 32 27 23 24 33 27 23 27 28 32 38 29 41
30 24 21 17 16 13 11 12 14 15 19 22 27 29 33 36 38 31 19 13 13 13 10 10 5 5 8 12 13 15 18 14 13 26 28 19 28 27 10 21 25 35 34 36 34
26 24 19 17 14 11 10 11 13 15 20 23 26 29 33 36 32 15 6 8 5 10 8 9 13 11 11 14 17 18 19 21 22 20 21 26 30 28 23 19 19 21 21 29 43
24 22 19 16 12 10 10 10 13 17 19 22 25 28 33 30 13 1 3 1 7 12 8 16 17 14 8 10 8 9 15 4 11 22 23 21 24 33 16 14 18 10 8 24 18

GFSSW_500_spd_132.txt.gz
Wind_Speed
33 32 32 34 34 35 35 36 37 37 37 38 36 35 36 35 38 37 35 33 33 33 33 35 36 38 39 38 39 41 43 41 37 36 34 26 33 36 37 42 42 44 45 46 45
35 35 34 34 35 34 35 36 37 36 38 39 39 38 39 38 39 39 35 34 34 35 37 38 40 42 42 40 44 45 45 44 41 42 41 37 37 36 43 45 43 47 49 50 50
40 38 36 35 36 37 38 35 35 36 36 36 38 39 37 38 39 40 38 37 39 40 40 40 43 45 44 46 49 47 45 47 48 47 47 47 45 39 44 49 50 50 53 52 54
43 43 40 38 36 37 37 36 35 35 33 31 32 36 37 36 39 41 40 40 42 42 43 45 43 42 44 46 47 46 46 46 48 51 52 52 49 48 48 49 53 57 57 58 56
45 43 42 40 37 35 34 37 41 38 38 35 32 31 29 31 35 40 44 46 46 46 49 48 46 46 46 46 48 47 47 49 51 53 54 54 54 54 51 51 48 53 58 59 54
45 42 39 41 41 41 39 37 40 40 42 39 36 38 36 35 32 35 38 40 44 45 46 47 47 49 47 46 46 46 47 47 49 52 51 50 52 54 53 50 50 50 53 56 55
42 39 40 39 43 41 44 40 37 37 39 45 45 41 33 36 39 42 43 42 42 45 48 50 49 46 45 46 47 47 47 47 48 48 48 49 54 54 50 45 48 51 53 55 55
48 44 41 40 44 43 42 41 36 33 37 32 40 43 37 37 39 41 42 43 43 45 45 46 45 45 48 49 49 50 51 50 47 45 47 47 51 49 48 49 51 49 52 66 66
50 47 46 48 43 43 40 42 38 35 33 38 34 32 32 37 45 44 44 46 51 50 46 44 46 48 48 48 49 47 51 52 52 49 48 50 54 52 51 53 56 55 55 60 63
44 48 46 47 46 42 40 45 45 44 41 40 42 43 39 36 38 39 41 44 45 45 46 46 46 45 44 46 48 49 50 51 51 46 49 51 53 49 54 59 58 57 55 53 58
33 40 47 48 46 46 45 43 39 42 43 43 43 47 46 43 38 38 41 44 45 43 43 44 45 42 44 47 48 50 52 52 49 45 55 54 54 54 55 60 61 54 52 50 48
44 32 32 41 42 42 43 43 36 37 37 35 36 38 43 48 46 40 42 41 41 42 43 43 41 42 45 47 48 49 50 50 48 48 54 55 57 55 52 58 53 48 48 47 42
47 48 48 33 36 35 34 43 41 38 39 43 42 42 41 42 40 40 39 40 41 40 42 43 40 44 46 47 48 47 52 52 52 53 55 58 60 55 51 54 51 49 44 45 45
39 48 51 49 41 36 43 41 40 40 41 41 40 42 40 37 38 38 38 36 37 40 42 41 42 45 46 47 50 49 51 53 54 55 56 57 62 52 53 50 47 47 39 42 47
39 38 39 37 41 41 36 36 38 35 40 39 38 35 34 34 37 37 38 38 40 41 43 42 43 44 47 49 53 52 55 57 56 56 58 55 64 55 56 54 53 48 37 39 46
44 39 36 35 32 33 29 33 34 37 39 36 36 32 33 34 36 38 39 41 41 42 44 44 46 49 52 52 54 57 56 54 53 52 55 58 54 57 57 58 58 51 45 37 41
44 40 38 35 31 30 28 34 34 36 36 36 32 34 34 35 37 38 38 37 41 44 44 43 44 48 52 53 53 55 57 59 61 54 52 49 45 59 50 40 38 48 46 35 39
47 43 39 33 33 31 35 34 34 37 30 31 35 34 35 38 37 38 37 38 42 43 45 46 46 48 50 53 56 54 52 47 52 54 48 34 40 32 33 33 26 39 47 41 33
45 41 37 37 36 36 36 37 36 33 29 33 34 36 38 37 36 37 37 42 43 44 47 47 45 51 56 56 48 50 51 50 44 40 41 33 31 34 38 36 32 24 36 37 34
42 39 38 38 39 38 38 38 34 31 32 32 33 34 31 32 33 34 36 39 42 44 48 53 51 53 58 60 56 38 47 49 43 40 34 22 17 26 32 24 24 19 28 31 36
41 42 40 41 41 39 37 33 32 32 30 25 24 27 27 27 31 32 35 38 41 44 48 53 54 47 44 40 40 28 35 35 32 30 32 34 38 20 22 26 26 22 31 39 37
42 40 39 40 40 40 32 31 30 26 23 22 25 26 25 28 29 31 35 39 44 47 47 42 38 29 19 19 10 9 14 21 28 19 15 32 34 39 30 27 27 29 30 40 44
44 45 45 44 39 35 30 28 25 24 23 21 21 22 24 26 28 31 35 40 43 43 36 27 20 14 9 10 8 11 14 8 18 31 18 7 23 34 42 37 31 26 31 45 58
45 49 49 41 33 31 29 28 24 19 20 19 19 21 22 23 27 32 37 38 36 27 16 6 7 10 12 9 14 15 5 12 13 11 24 23 22 23 36 40 31 35 34 41 45
51 43 39 34 32 29 25 18 17 17 17 17 17 19 19 23 29 34 36 27 21 9 6 6 6 12 13 11 10 7 12 12 14 17 23 25 28 21 17 23 14 20 10 23 29
43 35 32 27 27 19 16 16 17 17 15 16 17 17 19 24 29 28 20 3 5 9 7 8 12 14 8 12 10 12 16 17 17 15 18 22 30 33 26 19 6 12 26 21 24
40 38 33 23 19 19 18 17 14 14 14 13 14 16 20 24 26 14 7 3 8 8 10 15 12 10 6 11 9 7 7 6 4 15 16 23 25 23 20 18 20 16 12 12 18

GFSSW_500_spd_135.txt.gz
Wind_Speed
36 34 33 33 33 33 33 34 35 37 37 37 36 37 37 37 39 38 36 36 37 36 38 37 35 34 34 34 37 38 42 40 33 33 34 27 33 34 37 37 43 47 48 45 47
42 40 38 36 34 33 34 34 35 35 36 37 37 38 38 38 41 41 38 38 37 37 36 35 37 37 38 38 42 42 43 41 39 42 42 39 39 35 41 42 43 45 48 48 49
47 46 43 41 40 38 35 34 35 37 39 36 37 37 36 38 39 40 38 38 39 40 39 38 41 42 42 41 42 45 45 41 41 43 45 45 44 42 46 46 45 49 49 50 52
48 48 47 48 45 43 41 38 37 36 36 37 36 36 35 35 37 34 36 36 38 40 42 42 42 45 45 45 48 47 43 45 45 45 46 46 45 44 46 46 45 52 53 53 54
48 46 46 46 46 44 44 43 39 37 36 37 38 40 38 35 36 33 34 35 37 41 45 45 47 49 49 51 51 48 48 49 49 48 47 47 47 47 45 47 47 47 54 57 57
51 46 44 43 44 45 44 43 41 42 40 39 43 42 42 41 39 38 37 38 37 38 38 39 41 45 48 49 49 51 52 53 49 47 47 47 46 49 46 39 46 48 50 55 58
50 50 48 44 46 47 40 39 42 42 44 44 43 36 36 44 44 43 40 40 42 41 41 42 42 44 46 49 52 52 51 47 46 46 48 49 42 46 48 48 47 49 49 51 56
55 51 51 48 46 45 41 39 37 41 45 42 40 38 31 32 41 46 51 48 48 48 44 45 47 48 48 48 51 49 47 47 45 47 50 50 40 43 47 50 49 50 51 52 53
53 52 52 52 52 51 48 46 47 42 43 42 41 38 38 40 39 33 33 43 51 56 54 53 49 52 52 52 50 49 49 50 51 49 48 50 43 45 51 50 51 48 47 49 51
37 44 44 48 51 51 53 51 48 46 44 43 46 49 48 45 43 42 40 40 41 43 43 45 48 49 49 51 52 51 50 49 50 48 50 53 50 47 54 57 53 51 49 46 48
33 38 37 31 38 42 46 44 44 44 44 44 47 45 45 46 49 45 46 48 49 48 47 47 47 43 48 47 48 50 50 49 46 47 55 53 54 50 52 56 57 55 51 50 45
45 39 35 32 29 27 27 35 42 46 45 45 45 44 44 42 43 44 43 46 50 53 51 49 44 46 45 45 45 46 49 50 51 53 57 56 56 50 50 53 52 53 53 53 53
43 47 46 45 43 36 40 28 35 38 41 44 46 40 41 43 46 46 45 45 45 46 48 45 43 45 44 44 45 47 50 51 52 53 54 56 55 50 48 51 53 54 54 53 55
43 42 43 41 40 37 36 39 30 31 36 41 42 47 46 47 46 44 47 45 43 41 43 42 44 41 43 47 49 50 51 51 52 54 56 57 63 53 50 50 53 55 56 58 57
43 40 43 36 33 34 36 37 41 40 37 35 40 41 41 42 43 42 40 39 37 39 40 42 41 42 47 48 50 52 52 54 55 55 58 53 64 53 53 55 58 59 60 59 61
47 46 46 40 39 40 38 38 36 34 36 32 35 35 35 36 38 38 37 36 38 39 41 42 43 46 48 49 51 53 56 57 57 58 63 56 64 62 56 65 64 66 65 65 62
51 50 49 46 46 43 41 41 40 34 34 34 34 31 35 37 37 37 34 37 41 42 42 41 44 48 51 52 53 56 60 62 63 63 65 63 67 67 64 62 64 65 64 61 63
52 54 52 50 50 47 44 43 41 37 38 36 34 35 38 39 37 35 37 40 41 42 42 44 45 47 50 53 56 54 57 60 66 67 69 66 70 63 54 52 54 56 52 49 48
43 49 50 50 51 48 45 44 44 40 40 36 38 40 41 38 37 36 37 40 40 40 41 45 48 51 51 55 57 56 60 60 62 66 69 69 65 43 37 43 46 49 40 38 34
53 52 53 53 52 44 44 45 44 40 38 36 38 39 37 36 36 35 36 38 39 43 42 43 43 49 54 58 58 60 59 55 51 51 51 42 30 33 31 26 28 40 35 34 34
44 47 49 48 46 43 43 43 43 38 36 37 37 36 35 34 32 32 37 37 37 39 43 45 46 50 53 51 53 48 42 32 21 16 19 18 23 26 29 34 25 21 32 32 25
43 44 44 44 41 42 44 44 43 38 36 33 35 35 32 28 33 33 33 35 38 41 42 46 49 48 44 31 30 25 11 10 12 19 19 16 12 20 28 31 31 27 25 23 22
43 42 43 42 39 42 48 45 42 32 31 32 31 27 27 31 29 30 33 35 38 41 44 45 39 31 16 19 18 10 8 8 18 8 15 28 28 21 18 22 24 25 14 22 19
44 44 43 42 40 42 36 35 31 33 31 27 28 26 23 25 28 31 33 35 38 39 40 33 17 9 12 14 12 12 16 18 13 21 23 22 28 28 28 20 14 18 27 24 15
47 45 44 40 43 42 38 36 33 29 31 25 19 22 24 27 29 29 31 33 35 29 24 13 10 10 16 19 14 11 12 14 15 16 20 14 23 23 24 22 12 7 16 17 14
45 43 45 43 38 38 39 36 36 27 19 20 20 22 25 25 26 27 29 29 26 18 11 9 9 17 19 18 16 15 13 14 18 11 18 18 18 19 16 17 25 16 6 14 22
41 44 44 44 42 41 38 25 20 19 17 19 21 22 22 22 22 24 23 19 9 5 5 10 14 12 10 14 16 14 11 8 12 2 16 15 16 15 11 11 18 23 15 14 14

GFSSW_500_spd_138.txt.gz
Wind_Speed
41 39 36 37 35 34 34 32 30 31 33 33 32 31 32 33 36 34 33 35 35 34 35 36 37 36 36 33 33 33 38 35 30 30 29 28 32 33 35 36 38 40 44 41 40
45 43 42 40 41 40 37 36 34 32 31 31 31 31 33 34 36 36 35 36 37 36 36 38 39 38 36 33 36 36 39 37 36 37 39 36 38 36 40 40 38 41 46 48 44
47 46 46 47 45 46 42 41 41 39 35 33 33 32 31 34 35 35 36 36 37 36 36 36 37 37 38 38 37 40 42 40 41 40 42 41 39 41 40 41 41 42 45 51 50
47 49 49 48 48 48 48 47 45 45 43 42 38 35 32 33 36 35 36 38 37 35 35 35 36 38 39 42 42 43 43 44 45 46 44 43 43 42 42 40 38 42 45 49 53
49 50 49 48 50 48 47 47 45 44 42 44 41 37 36 36 37 38 40 38 38 35 34 35 38 40 41 43 45 47 47 48 49 48 44 45 47 48 46 42 42 42 44 48 53
53 50 48 48 50 51 48 47 45 44 41 44 44 40 41 41 40 40 39 41 40 41 39 37 38 40 41 37 39 42 44 43 45 48 50 50 50 51 44 38 42 41 40 45 51
52 52 51 53 52 50 47 49 45 43 42 44 41 40 43 42 40 36 35 41 44 41 42 43 43 42 43 42 44 45 47 48 48 50 52 53 52 49 48 44 40 39 38 39 44
55 57 53 55 55 51 51 50 48 42 40 42 38 37 41 42 42 38 32 30 36 47 49 54 53 48 47 52 55 51 51 53 53 52 50 51 47 47 47 45 45 43 41 40 39
60 59 58 57 58 55 53 49 50 46 44 43 46 49 45 45 44 44 43 43 44 42 37 42 46 52 53 57 59 58 53 47 44 48 49 48 45 49 45 42 44 44 44 44 42
59 58 62 55 49 47 49 50 51 50 50 51 51 51 48 47 47 47 49 49 47 46 46 45 47 46 45 46 46 47 49 50 51 50 53 53 48 51 52 49 45 44 44 43 41
41 46 38 35 41 39 37 37 44 50 47 46 50 53 50 44 45 45 46 49 48 50 51 51 52 55 55 52 52 52 52 53 52 51 54 51 52 46 44 47 50 51 48 48 46
62 56 48 50 33 32 30 28 30 35 35 44 45 49 49 46 48 44 46 46 48 49 49 49 51 53 53 55 56 54 54 54 53 49 50 49 49 48 48 48 47 46 47 51 54
56 60 54 52 55 46 41 45 37 32 33 26 38 39 44 46 47 47 46 45 46 49 52 52 53 53 51 48 48 47 48 49 51 52 49 52 52 50 50 51 51 50 53 54 56
46 41 45 47 47 39 37 37 42 35 32 35 32 36 35 38 44 46 49 50 53 52 52 48 49 48 48 48 46 45 46 48 51 53 54 55 61 50 49 55 56 58 58 59 59
50 43 46 46 43 38 43 39 40 34 39 36 35 36 36 36 35 40 45 48 48 46 44 44 43 43 44 44 46 47 50 52 52 54 57 55 64 54 55 65 64 63 62 62 62
54 50 48 44 46 37 43 39 39 40 40 37 36 36 36 35 39 39 39 40 40 41 41 41 42 43 45 46 47 49 50 52 55 58 59 57 68 61 60 66 65 66 66 66 67
52 51 49 49 49 48 47 43 44 41 40 39 39 40 38 38 39 38 37 36 38 41 42 43 43 44 45 45 48 51 53 57 58 61 61 62 66 66 64 66 69 70 71 71 71
53 53 52 56 55 54 52 53 50 46 45 43 43 44 41 40 39 39 38 38 40 40 40 40 42 44 46 48 51 53 54 55 58 60 62 60 67 65 68 71 74 77 77 77 77
54 54 51 55 54 55 54 56 53 50 49 45 45 46 45 43 42 40 41 43 42 40 40 43 46 46 48 50 50 51 53 57 60 61 64 63 65 68 68 64 67 67 64 53 52
50 47 52 50 50 53 56 54 53 51 49 47 47 45 42 42 40 39 39 41 39 40 40 42 45 47 48 49 51 53 55 55 55 54 52 50 48 35 28 32 32 33 31 24 29
49 50 49 45 44 48 51 51 48 51 50 46 46 45 42 39 37 36 38 38 38 40 43 42 42 46 48 50 52 53 51 51 50 28 23 24 15 13 16 22 26 27 28 23 19
50 51 53 52 54 55 50 50 50 50 45 43 42 44 40 37 36 36 35 35 39 37 37 40 43 47 50 48 48 47 37 33 26 16 12 19 20 19 22 27 21 23 19 17 12
49 50 46 48 48 46 47 47 45 43 41 43 42 43 36 36 36 32 34 36 34 36 39 41 44 45 44 40 33 30 24 19 16 18 22 22 25 20 21 25 16 11 10 20 15
48 46 42 47 46 43 41 41 39 42 42 46 42 37 31 30 31 33 29 31 35 38 40 42 42 40 32 28 22 18 20 19 21 20 18 20 20 17 19 23 13 13 12 3 11
47 47 46 43 46 45 41 43 41 43 45 39 28 27 32 30 25 26 29 34 36 38 40 37 32 26 19 22 22 21 17 19 19 21 25 24 23 19 11 16 23 21 18 13 12
43 43 43 41 41 45 46 38 41 37 31 27 29 28 25 19 23 29 31 32 34 35 32 25 16 16 18 21 18 18 17 17 18 16 22 23 18 16 15 13 17 17 23 12 14
39 39 43 42 33 29 31 41 38 30 31 31 27 19 18 22 26 27 29 30 30 27 20 15 15 15 12 12 16 15 14 13 17 20 17 15 16 19 19 12 13 17 17 23 13

GFSSW_500_spd_141.txt.gz
Wind_Speed
45 43 41 40 37 35 35 33 30 29 29 28 26 26 28 29 28 25 25 28 29 30 31 32 31 31 31 31 33 35 37 28 24 24 22 25 29 30 34 32 32 33 38 37 34
48 48 47 45 42 40 40 39 36 34 33 32 31 28 26 28 29 28 27 29 31 31 31 32 33 34 34 33 34 35 35 30 28 29 30 29 29 29 37 39 35 35 39 43 41
51 51 49 47 44 44 44 44 41 40 38 39 37 36 34 33 34 30 28 30 31 32 32 32 33 34 34 34 34 35 35 33 33 32 34 33 34 36 36 38 38 39 40 44 47
54 52 48 48 45 48 46 46 45 44 44 41 43 41 38 37 35 31 32 31 32 34 35 34 34 35 34 34 33 35 35 38 38 39 39 39 39 39 41 38 38 39 41 44 47
51 50 48 49 47 48 48 48 44 45 46 43 41 42 40 36 36 35 32 36 36 34 32 35 37 35 34 33 35 38 38 41 42 43 43 43 42 41 37 40 43 43 44 42 45
48 47 49 51 50 50 49 49 46 47 46 42 40 41 41 39 37 38 34 36 36 33 32 34 38 39 38 36 38 38 40 41 42 42 43 44 45 47 42 42 43 42 42 40 40
46 48 47 48 50 50 49 51 48 48 49 39 39 40 40 39 38 39 36 35 35 35 34 29 33 40 40 41 43 44 44 43 44 45 47 50 49 49 51 48 44 42 41 40 39
49 45 43 46 48 50 51 51 51 51 53 48 42 41 41 38 39 39 38 40 40 39 38 35 36 38 38 45 51 52 51 52 51 52 50 50 51 53 50 45 42 41 40 39 39
48 49 48 47 49 53 55 56 53 54 55 54 45 43 40 37 40 44 45 44 44 44 43 44 45 41 40 43 43 38 39 40 45 49 51 52 48 45 46 45 43 43 41 42 41
45 41 48 54 54 56 56 60 55 54 53 52 48 44 44 43 45 47 46 45 45 46 46 47 43 42 45 47 48 48 46 45 46 46 46 45 47 50 49 47 43 42 42 40 41
37 41 39 44 42 46 45 51 49 55 43 40 42 42 45 47 49 48 48 45 45 44 45 45 46 45 45 46 47 50 53 54 54 53 51 50 51 53 48 52 50 49 46 46 44
52 49 49 42 36 49 37 35 32 36 31 34 34 32 41 44 46 45 45 45 45 46 46 48 49 48 48 47 49 51 51 50 51 52 54 53 53 53 50 48 52 51 51 50 47
61 60 47 63 60 59 54 52 48 40 39 28 28 27 34 34 41 44 42 43 45 46 47 49 49 48 50 52 53 55 55 56 56 52 52 56 52 54 48 48 50 50 51 52 52
67 66 56 51 53 51 50 41 44 48 44 44 36 34 31 30 32 34 38 36 37 39 43 46 47 49 51 53 52 51 51 51 51 52 54 53 53 48 52 56 52 53 54 53 53
70 64 57 54 48 48 40 41 38 37 45 44 37 35 35 33 34 37 36 38 38 37 41 43 44 44 44 44 46 47 47 48 48 49 52 53 53 47 52 62 60 60 60 61 61
62 56 53 53 57 49 44 49 37 37 48 44 39 35 33 37 38 40 40 40 40 40 39 40 42 42 43 43 45 46 47 48 49 51 53 53 55 54 56 59 64 66 68 69 69
63 55 53 53 53 50 48 42 43 43 36 39 36 36 36 38 38 39 39 39 39 40 40 40 40 41 41 44 46 46 47 49 51 53 55 56 59 55 56 58 63 66 69 70 72
63 65 55 53 53 50 53 55 51 51 46 39 40 39 41 42 41 42 41 43 44 42 40 38 40 42 44 44 44 45 46 48 53 55 55 54 57 58 60 62 65 67 69 73 75
57 57 58 55 54 51 51 54 52 47 50 49 44 44 46 44 43 44 45 47 46 42 39 40 41 42 44 45 46 49 49 49 51 54 54 54 57 57 57 57 58 62 67 68 69
62 60 54 52 56 53 52 53 58 58 47 48 50 46 47 46 45 46 45 47 44 41 39 41 43 43 45 47 48 48 49 49 51 50 51 52 52 50 40 33 24 24 25 29 31
64 61 54 52 54 53 51 50 51 53 50 48 48 46 46 43 44 43 44 43 41 40 41 42 42 44 44 44 46 47 49 50 50 44 42 46 38 30 23 23 22 17 12 12 16
55 62 57 54 53 47 45 46 46 46 47 48 49 46 45 43 40 41 42 41 38 38 38 40 39 39 42 44 46 48 45 44 42 32 26 25 29 23 21 23 14 13 15 14 12
50 58 60 54 52 41 41 43 41 42 41 41 41 44 44 41 40 39 37 36 35 34 34 37 37 39 41 43 42 39 37 28 25 26 25 26 23 19 19 19 24 25 19 20 8
55 65 59 56 51 52 45 47 47 45 44 43 44 42 39 39 41 38 32 30 31 31 32 33 36 39 40 41 35 21 23 26 26 21 21 23 18 22 26 25 25 23 29 29 17
51 49 47 48 49 50 52 49 51 46 42 41 36 37 40 41 39 33 28 28 27 29 32 32 37 37 38 31 24 17 18 22 22 21 23 21 24 28 28 24 25 21 24 23 23
41 39 41 42 46 46 44 42 42 38 36 39 38 40 40 32 29 23 26 24 26 29 29 35 33 31 29 23 16 14 15 15 17 16 18 23 21 19 15 19 21 23 24 22 23
41 40 40 41 42 48 30 35 30 32 40 42 37 33 25 21 21 23 22 25 26 27 31 30 29 24 20 12 9 11 12 12 15 17 20 22 21 24 22 22 21 21 24 20 18